GEFSSGP_prec_meanprecacc_210.txt.gz
Total_Precipitation_Accumulation
0.04 0.10 0.31 0.52 0.93 1.70 1.61 1.01 0.50 0.29 0.28 0.34 0.40 0.43 0.46 0.45 0.64 1.03 0.57 0.35 0.19 0.17 0.21 0.33 0.37 0.30 0.32 0.43 0.46 0.48 0.54 0.55 0.52 0.52 0.55 0.58 0.53 0.48 0.46 0.47 0.44 0.45 0.47 0.40 0.38 0.36 0.34 0.38 0.38
0.06 0.16 0.39 0.59 1.28 1.81 1.33 1.14 0.44 0.25 0.22 0.32 0.39 0.42 0.43 0.42 0.26 0.30 0.38 0.34 0.22 0.19 0.17 0.22 0.29 0.30 0.32 0.42 0.48 0.64 0.65 0.62 0.56 0.57 0.55 0.49 0.46 0.44 0.41 0.43 0.44 0.46 0.42 0.38 0.33 0.30 0.29 0.31 0.31
0.09 0.21 0.40 0.57 0.97 1.09 0.74 0.58 0.27 0.23 0.25 0.29 0.37 0.38 0.40 0.48 0.30 0.29 0.32 0.25 0.21 0.19 0.20 0.24 0.28 0.27 0.38 0.46 0.53 0.59 0.53 0.50 0.50 0.54 0.52 0.50 0.47 0.45 0.43 0.43 0.42 0.43 0.40 0.35 0.29 0.28 0.28 0.29 0.33
0.09 0.19 0.30 0.45 0.49 0.53 0.45 0.32 0.21 0.18 0.22 0.29 0.32 0.34 0.44 0.40 0.26 0.34 0.38 0.36 0.22 0.19 0.23 0.27 0.30 0.32 0.39 0.40 0.43 0.50 0.52 0.47 0.48 0.50 0.52 0.52 0.49 0.50 0.44 0.37 0.36 0.36 0.38 0.34 0.30 0.28 0.29 0.31 0.38
0.10 0.24 0.34 0.36 0.31 0.40 0.38 0.29 0.23 0.16 0.15 0.28 0.38 0.51 0.57 0.42 0.28 0.42 0.44 0.46 0.31 0.24 0.29 0.31 0.38 0.41 0.42 0.39 0.41 0.43 0.46 0.48 0.51 0.50 0.48 0.48 0.45 0.46 0.43 0.35 0.30 0.31 0.34 0.32 0.30 0.29 0.34 0.38 0.44
0.12 0.23 0.26 0.24 0.24 0.31 0.29 0.21 0.19 0.18 0.22 0.27 0.39 0.63 0.72 0.56 0.39 0.41 0.50 0.44 0.41 0.40 0.40 0.44 0.49 0.48 0.48 0.45 0.44 0.43 0.43 0.43 0.41 0.41 0.44 0.41 0.38 0.42 0.45 0.42 0.33 0.31 0.32 0.30 0.29 0.30 0.36 0.44 0.49
0.11 0.17 0.15 0.14 0.17 0.24 0.24 0.18 0.17 0.15 0.18 0.29 0.36 0.68 0.87 0.91 0.66 0.55 0.64 0.70 0.76 0.61 0.49 0.51 0.57 0.58 0.56 0.60 0.54 0.49 0.45 0.44 0.42 0.42 0.43 0.41 0.38 0.37 0.40 0.46 0.42 0.36 0.39 0.36 0.35 0.34 0.37 0.45 0.53
0.04 0.07 0.11 0.12 0.09 0.18 0.20 0.18 0.15 0.16 0.18 0.26 0.34 0.54 0.86 0.81 0.57 0.64 0.95 1.02 1.18 1.03 0.82 0.75 0.66 0.61 0.59 0.59 0.59 0.57 0.52 0.46 0.45 0.45 0.41 0.44 0.43 0.42 0.46 0.44 0.46 0.46 0.49 0.53 0.49 0.47 0.47 0.49 0.51
0.03 0.04 0.08 0.08 0.06 0.10 0.12 0.14 0.14 0.13 0.17 0.34 0.46 0.55 0.70 0.61 0.56 0.67 1.21 1.28 1.36 1.30 1.12 0.91 0.74 0.69 0.71 0.63 0.60 0.66 0.63 0.58 0.57 0.59 0.55 0.63 0.75 0.69 0.75 0.64 0.71 0.69 0.71 0.76 0.75 0.76 0.77 0.72 0.62
0.02 0.02 0.03 0.03 0.04 0.05 0.09 0.14 0.13 0.15 0.30 0.66 0.88 0.85 0.81 0.71 0.77 0.96 1.29 1.20 1.34 1.40 1.19 1.05 0.88 0.76 0.70 0.67 0.77 0.98 0.81 0.80 0.88 0.98 0.98 1.16 1.35 1.32 0.87 0.90 1.15 1.21 1.27 1.26 1.26 1.27 1.08 0.92 0.86
0.02 0.02 0.02 0.02 0.02 0.03 0.06 0.11 0.14 0.17 0.53 0.96 1.26 1.06 0.94 1.00 1.06 1.29 1.61 1.66 1.56 1.66 1.46 1.26 1.08 0.91 0.84 0.98 0.90 1.02 1.14 1.22 1.25 1.27 1.27 1.44 1.36 1.16 0.99 1.11 1.37 1.61 1.67 1.56 1.74 1.79 1.45 1.51 1.75
0.02 0.02 0.01 0.01 0.01 0.03 0.06 0.08 0.14 0.24 0.49 0.68 0.86 1.01 1.09 1.23 1.48 1.69 1.73 1.90 1.86 1.83 1.71 1.67 1.44 1.28 1.35 1.29 1.03 0.97 1.02 1.12 1.28 1.52 1.48 1.56 1.75 1.64 1.58 1.63 1.67 1.80 2.00 2.24 2.19 2.35 2.20 2.12 1.99
0.01 0.02 0.01 0.01 0.01 0.03 0.05 0.07 0.17 0.32 0.43 0.53 0.84 1.18 1.42 1.44 1.73 1.99 2.05 2.29 2.13 2.01 1.95 1.94 1.90 1.73 1.80 1.62 1.42 1.23 1.35 1.35 1.41 1.55 1.68 1.63 1.85 2.00 2.00 1.95 1.93 1.83 1.91 2.08 2.27 2.31 2.66 2.77 2.40
0.00 0.01 0.01 0.01 0.02 0.04 0.07 0.11 0.22 0.36 0.52 0.69 0.92 1.20 1.50 1.75 1.95 2.03 2.36 2.58 2.55 2.38 2.39 2.21 2.17 2.16 2.14 2.06 2.02 1.94 1.72 1.74 1.67 1.64 1.64 1.67 1.89 2.12 2.23 2.10 2.07 1.94 1.90 2.05 2.24 2.41 2.89 2.92 2.73
0.00 0.02 0.03 0.03 0.05 0.07 0.10 0.26 0.42 0.53 0.61 0.73 0.93 1.10 1.43 1.93 2.20 2.21 2.42 2.57 2.53 2.82 2.83 2.82 2.78 2.91 2.84 2.66 2.51 2.33 2.17 2.00 1.97 2.02 2.02 1.92 1.94 2.13 2.14 1.98 1.88 1.92 2.06 2.23 2.26 2.41 2.72 2.49 2.46
0.02 0.08 0.11 0.11 0.09 0.10 0.15 0.46 0.57 0.65 0.65 0.84 1.03 1.19 1.50 1.78 2.12 2.26 2.49 2.67 2.76 3.09 3.21 3.35 3.37 3.37 3.22 3.18 3.09 2.84 2.62 2.45 2.28 2.21 2.26 2.09 2.01 2.03 2.18 1.99 1.83 2.13 2.19 2.28 2.50 2.64 2.66 2.61 2.61
0.05 0.06 0.08 0.11 0.09 0.08 0.15 0.40 0.51 0.65 0.87 1.05 1.21 1.32 1.43 1.69 2.00 2.35 2.62 2.96 3.26 3.55 3.78 3.93 3.94 3.80 3.54 3.55 3.51 3.35 3.17 2.83 2.47 2.31 2.23 2.08 2.01 2.10 2.35 2.31 2.39 2.47 2.50 2.51 2.39 2.68 2.71 2.61 2.60
0.03 0.06 0.07 0.11 0.10 0.09 0.20 0.44 0.55 0.68 0.93 1.02 1.28 1.43 1.53 1.61 2.06 2.49 2.69 3.12 3.62 4.09 4.46 4.26 4.14 4.30 4.17 4.00 3.82 3.54 3.10 2.70 2.55 2.47 2.29 2.15 2.13 2.21 2.55 2.39 2.39 2.49 2.62 2.65 2.57 2.58 2.60 2.35 2.32
0.04 0.06 0.09 0.12 0.10 0.12 0.24 0.51 0.76 0.85 1.13 1.11 1.14 1.30 1.45 1.58 1.88 2.29 2.59 3.16 3.77 4.14 4.52 4.66 4.64 4.51 4.26 3.83 3.49 3.24 3.02 2.87 2.62 2.44 2.36 2.22 2.10 2.20 2.52 2.40 2.53 2.51 2.52 2.53 2.54 2.55 2.40 2.03 2.23
0.04 0.07 0.10 0.14 0.13 0.17 0.33 0.55 0.83 0.86 0.96 1.03 0.95 0.99 1.18 1.54 1.79 2.32 2.61 2.82 3.29 3.80 4.26 4.54 4.68 4.55 4.15 3.69 3.45 3.30 3.23 2.88 2.58 2.53 2.54 2.36 2.37 2.36 2.36 2.45 2.42 2.46 2.55 2.47 2.41 2.46 2.28 1.91 2.05
0.06 0.07 0.10 0.10 0.13 0.24 0.36 0.75 1.01 0.92 0.89 0.93 0.93 0.99 1.16 1.63 2.06 2.33 2.52 2.68 2.95 3.34 3.65 3.77 3.91 3.87 3.69 3.67 3.65 3.55 3.48 3.03 2.85 2.82 2.78 2.63 2.58 2.52 2.49 2.44 2.34 2.27 2.15 2.13 2.19 2.21 2.19 2.02 1.93
0.08 0.07 0.06 0.07 0.14 0.34 0.38 0.84 1.27 1.11 0.97 1.04 1.11 1.07 1.35 1.68 1.71 1.86 2.17 2.49 2.65 2.88 3.23 3.46 3.51 3.45 3.34 3.41 3.41 3.26 3.04 2.85 2.93 3.16 3.10 2.83 2.58 2.38 2.14 2.00 2.05 2.04 1.94 1.90 1.70 1.75 1.87 1.81 1.67
0.06 0.06 0.06 0.09 0.16 0.32 0.41 0.61 1.12 1.15 1.20 1.12 1.15 1.27 1.49 1.52 1.46 1.56 1.77 2.08 2.19 2.50 2.78 3.03 3.29 3.36 3.29 3.31 3.22 3.19 3.06 3.04 3.05 2.97 2.87 2.63 2.39 2.07 1.77 1.67 1.75 1.76 1.69 1.60 1.52 1.61 1.54 1.47 1.45
0.05 0.06 0.12 0.19 0.31 0.65 0.52 0.53 0.96 1.12 1.01 0.95 1.04 1.08 1.29 1.30 1.30 1.48 1.64 1.87 1.98 2.14 2.25 2.39 2.59 2.86 3.00 3.03 3.00 2.99 2.91 2.86 2.77 2.59 2.39 2.19 2.01 1.74 1.49 1.38 1.49 1.59 1.62 1.58 1.53 1.57 1.45 1.44 1.53
0.06 0.09 0.39 0.74 0.98 1.03 0.56 0.60 1.05 0.92 0.73 0.75 0.92 0.96 1.03 1.02 1.01 1.22 1.35 1.46 1.59 1.71 1.80 1.92 2.12 2.45 2.57 2.54 2.53 2.64 2.67 2.65 2.55 2.45 2.24 2.01 1.76 1.46 1.38 1.39 1.46 1.51 1.58 1.49 1.51 1.51 1.53 1.62 1.65
0.08 0.09 0.34 0.62 0.75 0.82 0.67 1.02 1.46 0.97 0.75 0.80 0.83 0.81 0.79 0.79 0.76 0.91 1.12 1.32 1.38 1.42 1.54 1.67 1.90 2.11 2.18 2.09 2.21 2.41 2.47 2.53 2.41 2.40 2.17 1.88 1.66 1.53 1.55 1.52 1.42 1.39 1.45 1.38 1.57 1.50 1.53 1.65 1.65
0.09 0.08 0.14 0.28 0.37 0.60 0.83 1.13 1.18 0.73 0.64 0.73 0.75 0.75 0.78 0.78 0.74 0.80 0.87 1.02 1.07 1.13 1.22 1.33 1.68 1.91 1.99 1.99 2.13 2.25 2.32 2.27 2.16 2.06 1.91 1.71 1.69 1.63 1.73 1.69 1.59 1.48 1.51 1.61 1.83 1.81 1.81 1.94 1.88
0.10 0.11 0.16 0.22 0.35 0.58 0.80 1.10 1.25 0.88 0.71 0.53 0.49 0.53 0.49 0.50 0.53 0.59 0.59 0.68 0.81 0.99 1.17 1.28 1.40 1.62 1.82 1.86 1.90 1.94 2.07 2.00 1.90 1.86 1.70 1.54 1.46 1.53 1.69 1.79 1.74 1.65 1.66 1.80 1.95 1.97 2.09 2.19 2.17
0.13 0.11 0.13 0.17 0.21 0.40 0.79 1.02 0.83 0.69 0.58 0.54 0.50 0.54 0.47 0.40 0.41 0.46 0.55 0.67 0.79 0.89 1.04 1.21 1.27 1.41 1.56 1.64 1.75 1.76 1.74 1.80 1.82 1.70 1.53 1.46 1.46 1.50 1.57 1.70 1.77 1.72 1.72 1.82 1.88 1.87 2.09 2.19 2.19
0.14 0.11 0.13 0.17 0.17 0.25 0.44 0.66 0.53 0.59 0.60 0.52 0.54 0.60 0.60 0.55 0.49 0.50 0.63 0.74 0.78 0.88 0.97 1.05 1.11 1.24 1.40 1.55 1.74 1.83 1.83 1.85 1.80 1.62 1.48 1.47 1.50 1.56 1.59 1.68 1.70 1.62 1.63 1.77 1.80 1.86 2.04 2.12 2.04

GEFSSGP_prec_meanprecacc_216.txt.gz
Total_Precipitation_Accumulation
0.04 0.10 0.31 0.53 0.95 1.72 1.62 1.01 0.50 0.29 0.28 0.34 0.40 0.44 0.47 0.49 0.67 1.07 0.65 0.42 0.24 0.23 0.30 0.41 0.45 0.37 0.38 0.50 0.54 0.56 0.62 0.60 0.58 0.59 0.61 0.64 0.58 0.53 0.50 0.50 0.49 0.51 0.52 0.45 0.42 0.40 0.37 0.40 0.40
0.06 0.16 0.40 0.60 1.30 1.82 1.34 1.14 0.44 0.25 0.22 0.32 0.39 0.42 0.45 0.44 0.27 0.34 0.45 0.42 0.28 0.25 0.26 0.28 0.36 0.37 0.39 0.50 0.56 0.71 0.72 0.67 0.62 0.63 0.60 0.55 0.52 0.49 0.47 0.48 0.48 0.51 0.47 0.42 0.37 0.34 0.31 0.33 0.32
0.09 0.21 0.41 0.59 0.98 1.10 0.74 0.58 0.27 0.23 0.25 0.29 0.37 0.38 0.41 0.49 0.31 0.33 0.38 0.30 0.27 0.25 0.27 0.30 0.34 0.35 0.45 0.54 0.61 0.67 0.60 0.54 0.55 0.60 0.58 0.56 0.53 0.50 0.47 0.47 0.45 0.47 0.44 0.39 0.32 0.31 0.31 0.31 0.33
0.09 0.19 0.31 0.46 0.49 0.53 0.45 0.32 0.21 0.18 0.22 0.29 0.32 0.34 0.45 0.41 0.27 0.37 0.41 0.41 0.27 0.24 0.27 0.30 0.34 0.38 0.45 0.46 0.49 0.56 0.57 0.51 0.52 0.54 0.56 0.57 0.55 0.55 0.49 0.42 0.39 0.40 0.41 0.38 0.34 0.32 0.31 0.33 0.39
0.10 0.24 0.35 0.36 0.31 0.40 0.38 0.29 0.23 0.16 0.15 0.28 0.38 0.51 0.59 0.43 0.30 0.44 0.47 0.51 0.37 0.31 0.33 0.34 0.41 0.46 0.47 0.44 0.47 0.48 0.50 0.52 0.55 0.53 0.51 0.51 0.49 0.50 0.47 0.39 0.34 0.35 0.36 0.34 0.33 0.33 0.37 0.41 0.45
0.12 0.24 0.26 0.24 0.24 0.31 0.29 0.21 0.19 0.18 0.22 0.27 0.39 0.63 0.73 0.58 0.40 0.43 0.55 0.49 0.48 0.50 0.49 0.49 0.54 0.52 0.52 0.49 0.49 0.46 0.46 0.46 0.44 0.43 0.45 0.43 0.40 0.44 0.48 0.45 0.36 0.33 0.34 0.31 0.31 0.32 0.39 0.46 0.51
0.11 0.17 0.15 0.14 0.17 0.24 0.24 0.18 0.17 0.15 0.18 0.29 0.36 0.68 0.88 0.93 0.67 0.56 0.66 0.73 0.82 0.75 0.61 0.58 0.64 0.64 0.60 0.66 0.60 0.54 0.48 0.46 0.45 0.44 0.45 0.43 0.39 0.39 0.42 0.48 0.45 0.37 0.40 0.38 0.37 0.35 0.40 0.47 0.55
0.04 0.07 0.12 0.12 0.09 0.18 0.20 0.18 0.15 0.16 0.18 0.26 0.34 0.55 0.88 0.82 0.58 0.65 0.97 1.09 1.30 1.19 0.96 0.83 0.74 0.67 0.64 0.64 0.64 0.61 0.55 0.49 0.48 0.47 0.43 0.46 0.46 0.44 0.48 0.46 0.49 0.48 0.51 0.55 0.51 0.48 0.48 0.50 0.52
0.03 0.04 0.08 0.08 0.06 0.10 0.12 0.14 0.14 0.13 0.17 0.34 0.46 0.56 0.71 0.62 0.57 0.69 1.26 1.42 1.52 1.44 1.27 1.01 0.82 0.78 0.78 0.68 0.63 0.71 0.68 0.62 0.62 0.62 0.58 0.71 0.85 0.74 0.79 0.66 0.73 0.71 0.73 0.77 0.76 0.77 0.77 0.73 0.63
0.02 0.02 0.03 0.03 0.04 0.05 0.09 0.14 0.13 0.15 0.30 0.66 0.88 0.86 0.81 0.71 0.79 1.00 1.38 1.36 1.50 1.57 1.34 1.17 0.99 0.87 0.79 0.71 0.82 1.05 0.87 0.88 0.96 1.03 1.03 1.25 1.44 1.41 0.92 0.93 1.16 1.22 1.29 1.27 1.27 1.28 1.09 0.94 0.88
0.02 0.02 0.02 0.02 0.02 0.03 0.06 0.11 0.14 0.17 0.53 0.96 1.27 1.08 0.95 1.01 1.07 1.32 1.66 1.77 1.71 1.84 1.63 1.40 1.18 0.99 0.90 1.02 0.93 1.06 1.21 1.30 1.32 1.33 1.32 1.48 1.40 1.19 1.02 1.14 1.39 1.62 1.69 1.58 1.75 1.82 1.49 1.54 1.76
0.02 0.02 0.01 0.01 0.01 0.03 0.06 0.08 0.14 0.24 0.49 0.68 0.86 1.02 1.10 1.25 1.50 1.71 1.77 1.95 1.96 1.97 1.86 1.80 1.50 1.33 1.40 1.33 1.08 1.01 1.05 1.17 1.35 1.59 1.54 1.60 1.79 1.69 1.62 1.68 1.70 1.83 2.03 2.28 2.21 2.37 2.22 2.13 2.00
0.01 0.02 0.01 0.01 0.01 0.03 0.05 0.07 0.17 0.32 0.43 0.53 0.84 1.18 1.43 1.45 1.75 2.01 2.06 2.30 2.15 2.06 2.05 2.06 1.95 1.78 1.85 1.67 1.48 1.26 1.37 1.38 1.45 1.59 1.74 1.66 1.89 2.05 2.04 1.99 1.96 1.85 1.93 2.09 2.29 2.32 2.67 2.78 2.41
0.00 0.01 0.01 0.01 0.02 0.04 0.07 0.12 0.22 0.36 0.52 0.69 0.92 1.20 1.50 1.76 1.97 2.04 2.37 2.58 2.56 2.40 2.41 2.25 2.20 2.21 2.19 2.10 2.07 1.97 1.73 1.77 1.70 1.68 1.68 1.71 1.94 2.18 2.29 2.14 2.10 1.96 1.91 2.07 2.25 2.41 2.91 2.93 2.73
0.00 0.02 0.03 0.03 0.05 0.07 0.11 0.26 0.42 0.53 0.61 0.73 0.93 1.10 1.43 1.94 2.21 2.22 2.43 2.57 2.53 2.83 2.84 2.83 2.79 2.93 2.87 2.70 2.55 2.34 2.18 2.02 1.99 2.05 2.05 1.94 1.97 2.17 2.19 2.02 1.91 1.95 2.08 2.25 2.28 2.41 2.73 2.49 2.47
0.02 0.08 0.11 0.11 0.09 0.10 0.17 0.47 0.58 0.65 0.66 0.84 1.03 1.19 1.50 1.79 2.13 2.27 2.49 2.68 2.77 3.09 3.21 3.35 3.37 3.38 3.25 3.22 3.13 2.87 2.65 2.47 2.31 2.26 2.28 2.12 2.04 2.06 2.22 2.02 1.86 2.17 2.22 2.30 2.53 2.67 2.68 2.63 2.62
0.05 0.06 0.08 0.11 0.09 0.08 0.15 0.40 0.51 0.66 0.87 1.05 1.22 1.34 1.43 1.70 2.02 2.36 2.63 2.97 3.27 3.57 3.80 3.95 3.95 3.81 3.56 3.57 3.53 3.38 3.20 2.87 2.51 2.37 2.27 2.10 2.03 2.12 2.39 2.36 2.43 2.50 2.54 2.56 2.42 2.74 2.77 2.66 2.67
0.03 0.06 0.07 0.11 0.10 0.09 0.20 0.44 0.55 0.68 0.94 1.02 1.29 1.45 1.53 1.63 2.07 2.50 2.70 3.12 3.62 4.10 4.48 4.30 4.17 4.33 4.20 4.03 3.86 3.58 3.13 2.73 2.59 2.52 2.32 2.17 2.16 2.23 2.58 2.44 2.44 2.53 2.67 2.71 2.64 2.68 2.69 2.43 2.39
0.04 0.06 0.09 0.12 0.10 0.12 0.24 0.51 0.76 0.85 1.13 1.11 1.14 1.30 1.45 1.59 1.88 2.30 2.60 3.16 3.78 4.15 4.54 4.69 4.67 4.54 4.31 3.88 3.54 3.29 3.06 2.90 2.65 2.47 2.38 2.24 2.12 2.23 2.56 2.45 2.62 2.58 2.59 2.59 2.62 2.65 2.51 2.12 2.31
0.04 0.07 0.10 0.14 0.14 0.18 0.34 0.55 0.83 0.86 0.96 1.03 0.95 0.99 1.18 1.55 1.80 2.32 2.62 2.82 3.30 3.81 4.27 4.55 4.69 4.57 4.17 3.74 3.50 3.34 3.27 2.91 2.60 2.56 2.59 2.41 2.41 2.40 2.42 2.53 2.50 2.55 2.66 2.57 2.52 2.57 2.38 2.00 2.14
0.06 0.07 0.10 0.10 0.13 0.25 0.36 0.75 1.01 0.92 0.89 0.93 0.93 0.99 1.16 1.63 2.07 2.33 2.52 2.68 2.96 3.35 3.66 3.78 3.92 3.88 3.72 3.71 3.68 3.59 3.52 3.07 2.92 2.89 2.86 2.69 2.64 2.58 2.54 2.52 2.42 2.36 2.23 2.26 2.33 2.33 2.31 2.15 2.05
0.08 0.07 0.06 0.07 0.14 0.34 0.38 0.84 1.27 1.11 0.97 1.04 1.11 1.07 1.35 1.68 1.71 1.87 2.18 2.49 2.66 2.89 3.24 3.47 3.52 3.47 3.37 3.44 3.45 3.31 3.09 2.91 3.00 3.23 3.19 2.91 2.66 2.45 2.21 2.08 2.14 2.12 2.02 2.03 1.82 1.89 2.01 1.98 1.82
0.06 0.06 0.06 0.09 0.16 0.32 0.41 0.62 1.12 1.16 1.20 1.12 1.15 1.27 1.49 1.52 1.46 1.56 1.77 2.08 2.19 2.50 2.79 3.03 3.30 3.38 3.31 3.34 3.26 3.24 3.11 3.10 3.11 3.05 2.99 2.74 2.50 2.15 1.84 1.74 1.82 1.83 1.76 1.69 1.62 1.75 1.67 1.61 1.57
0.05 0.06 0.12 0.19 0.31 0.65 0.52 0.53 0.97 1.13 1.01 0.95 1.04 1.08 1.29 1.30 1.31 1.49 1.64 1.87 1.99 2.14 2.25 2.39 2.60 2.87 3.03 3.05 3.03 3.04 2.96 2.94 2.85 2.71 2.53 2.31 2.10 1.83 1.56 1.43 1.55 1.65 1.68 1.64 1.61 1.68 1.57 1.56 1.66
0.06 0.10 0.39 0.74 0.98 1.03 0.56 0.60 1.05 0.92 0.73 0.75 0.92 0.96 1.03 1.02 1.01 1.23 1.35 1.46 1.59 1.72 1.81 1.93 2.13 2.46 2.59 2.56 2.54 2.66 2.71 2.71 2.62 2.55 2.35 2.11 1.83 1.53 1.46 1.45 1.53 1.57 1.64 1.55 1.58 1.62 1.66 1.75 1.78
0.08 0.09 0.34 0.62 0.75 0.82 0.67 1.02 1.46 0.97 0.75 0.80 0.83 0.81 0.79 0.79 0.77 0.92 1.13 1.33 1.39 1.42 1.54 1.67 1.90 2.12 2.19 2.11 2.24 2.44 2.50 2.57 2.45 2.47 2.23 1.95 1.72 1.60 1.63 1.60 1.49 1.45 1.52 1.45 1.66 1.60 1.64 1.77 1.76
0.09 0.08 0.14 0.28 0.37 0.60 0.83 1.13 1.18 0.73 0.64 0.73 0.75 0.75 0.78 0.78 0.74 0.80 0.87 1.03 1.08 1.13 1.22 1.33 1.69 1.93 2.01 2.01 2.16 2.28 2.35 2.32 2.22 2.13 1.96 1.76 1.75 1.71 1.81 1.77 1.65 1.54 1.59 1.69 1.92 1.88 1.89 2.04 1.97
0.10 0.11 0.16 0.22 0.36 0.58 0.80 1.10 1.25 0.88 0.71 0.53 0.49 0.53 0.49 0.50 0.53 0.59 0.59 0.69 0.81 0.99 1.17 1.28 1.42 1.64 1.85 1.90 1.94 1.98 2.13 2.06 1.96 1.92 1.78 1.62 1.54 1.59 1.75 1.86 1.81 1.73 1.74 1.87 2.03 2.04 2.17 2.28 2.24
0.13 0.11 0.13 0.17 0.21 0.40 0.80 1.02 0.83 0.69 0.58 0.54 0.50 0.54 0.47 0.40 0.41 0.46 0.55 0.67 0.80 0.90 1.05 1.23 1.30 1.44 1.59 1.68 1.79 1.80 1.79 1.85 1.88 1.76 1.61 1.56 1.54 1.57 1.64 1.79 1.86 1.80 1.79 1.90 1.97 1.93 2.15 2.25 2.25
0.14 0.11 0.13 0.17 0.17 0.25 0.45 0.66 0.53 0.59 0.60 0.52 0.54 0.60 0.60 0.55 0.49 0.52 0.67 0.77 0.80 0.90 0.99 1.07 1.13 1.26 1.42 1.58 1.77 1.86 1.87 1.90 1.85 1.68 1.54 1.54 1.56 1.62 1.68 1.78 1.78 1.69 1.70 1.85 1.88 1.92 2.10 2.17 2.09

GEFSSGP_prec_meanprecacc_222.txt.gz
Total_Precipitation_Accumulation
0.05 0.11 0.32 0.54 0.97 1.74 1.63 1.02 0.51 0.30 0.29 0.36 0.42 0.45 0.50 0.52 0.69 1.12 0.78 0.53 0.31 0.40 0.47 0.54 0.54 0.44 0.43 0.53 0.58 0.61 0.66 0.64 0.62 0.61 0.63 0.67 0.62 0.56 0.54 0.55 0.53 0.55 0.57 0.50 0.46 0.44 0.40 0.42 0.42
0.08 0.18 0.42 0.62 1.32 1.83 1.35 1.14 0.44 0.26 0.22 0.32 0.39 0.42 0.47 0.47 0.30 0.40 0.59 0.51 0.34 0.38 0.36 0.33 0.41 0.42 0.44 0.53 0.60 0.76 0.76 0.71 0.65 0.66 0.63 0.57 0.55 0.52 0.49 0.51 0.52 0.55 0.51 0.46 0.40 0.37 0.33 0.34 0.34
0.10 0.22 0.42 0.61 0.99 1.10 0.75 0.58 0.27 0.24 0.26 0.30 0.37 0.39 0.41 0.51 0.34 0.40 0.45 0.35 0.31 0.32 0.33 0.36 0.41 0.40 0.49 0.58 0.65 0.71 0.62 0.57 0.58 0.63 0.60 0.58 0.56 0.54 0.51 0.50 0.49 0.50 0.47 0.42 0.35 0.33 0.32 0.33 0.36
0.11 0.21 0.32 0.47 0.50 0.54 0.45 0.32 0.21 0.18 0.22 0.29 0.32 0.34 0.45 0.42 0.29 0.41 0.45 0.45 0.31 0.27 0.30 0.35 0.40 0.44 0.49 0.49 0.53 0.59 0.59 0.53 0.55 0.56 0.58 0.59 0.57 0.58 0.52 0.45 0.43 0.43 0.43 0.40 0.37 0.34 0.33 0.34 0.42
0.11 0.25 0.36 0.37 0.31 0.40 0.38 0.29 0.23 0.16 0.15 0.28 0.38 0.51 0.60 0.45 0.32 0.47 0.51 0.56 0.43 0.33 0.37 0.37 0.46 0.50 0.50 0.46 0.49 0.50 0.52 0.53 0.56 0.55 0.53 0.53 0.51 0.52 0.49 0.41 0.37 0.37 0.38 0.36 0.36 0.35 0.38 0.42 0.47
0.13 0.25 0.27 0.24 0.24 0.31 0.29 0.21 0.19 0.18 0.22 0.27 0.39 0.63 0.75 0.61 0.42 0.46 0.59 0.53 0.53 0.52 0.52 0.51 0.57 0.55 0.54 0.51 0.51 0.48 0.47 0.48 0.45 0.44 0.46 0.44 0.41 0.46 0.49 0.47 0.38 0.35 0.36 0.33 0.33 0.34 0.40 0.47 0.53
0.12 0.18 0.16 0.14 0.18 0.25 0.24 0.18 0.17 0.15 0.18 0.29 0.36 0.68 0.90 0.97 0.71 0.58 0.69 0.78 0.86 0.78 0.65 0.61 0.68 0.67 0.62 0.68 0.62 0.55 0.49 0.48 0.47 0.45 0.46 0.44 0.40 0.40 0.43 0.50 0.46 0.39 0.42 0.40 0.38 0.37 0.42 0.48 0.56
0.05 0.08 0.12 0.12 0.10 0.18 0.20 0.18 0.15 0.16 0.18 0.26 0.34 0.55 0.90 0.86 0.62 0.67 1.01 1.15 1.36 1.24 1.00 0.87 0.78 0.71 0.68 0.66 0.65 0.62 0.56 0.50 0.50 0.49 0.45 0.48 0.47 0.45 0.49 0.46 0.50 0.49 0.53 0.56 0.52 0.49 0.49 0.51 0.54
0.04 0.05 0.09 0.09 0.07 0.10 0.12 0.14 0.14 0.13 0.17 0.34 0.47 0.56 0.74 0.66 0.60 0.72 1.32 1.51 1.62 1.52 1.34 1.09 0.89 0.84 0.82 0.70 0.65 0.73 0.69 0.63 0.64 0.65 0.61 0.74 0.87 0.75 0.80 0.67 0.74 0.72 0.74 0.78 0.77 0.79 0.78 0.74 0.66
0.03 0.03 0.04 0.04 0.04 0.05 0.09 0.14 0.13 0.15 0.30 0.66 0.88 0.86 0.82 0.75 0.85 1.08 1.47 1.50 1.68 1.76 1.50 1.29 1.10 0.94 0.84 0.73 0.84 1.06 0.88 0.89 0.98 1.06 1.06 1.27 1.47 1.44 0.94 0.95 1.19 1.24 1.30 1.28 1.28 1.29 1.11 0.96 0.91
0.02 0.03 0.02 0.02 0.02 0.03 0.06 0.12 0.14 0.18 0.53 0.96 1.27 1.08 0.95 1.02 1.10 1.36 1.73 1.92 1.92 2.05 1.81 1.57 1.31 1.08 0.97 1.05 0.94 1.08 1.23 1.32 1.34 1.35 1.35 1.51 1.42 1.22 1.06 1.17 1.42 1.65 1.70 1.60 1.77 1.83 1.50 1.56 1.80
0.02 0.02 0.01 0.01 0.01 0.03 0.06 0.09 0.14 0.24 0.49 0.69 0.86 1.02 1.11 1.26 1.51 1.72 1.78 2.01 2.08 2.14 2.04 2.00 1.62 1.43 1.52 1.38 1.10 1.02 1.07 1.19 1.37 1.60 1.57 1.63 1.82 1.72 1.65 1.72 1.76 1.86 2.05 2.30 2.22 2.39 2.24 2.17 2.03
0.01 0.02 0.01 0.01 0.01 0.03 0.05 0.08 0.17 0.32 0.43 0.53 0.85 1.19 1.43 1.46 1.75 2.01 2.06 2.32 2.19 2.13 2.17 2.19 2.03 1.83 1.89 1.70 1.50 1.28 1.39 1.41 1.47 1.60 1.75 1.69 1.91 2.07 2.07 2.02 2.00 1.88 1.96 2.12 2.31 2.36 2.69 2.81 2.44
0.00 0.01 0.01 0.01 0.02 0.04 0.08 0.12 0.23 0.37 0.53 0.72 0.94 1.21 1.51 1.76 1.97 2.05 2.38 2.59 2.57 2.42 2.45 2.30 2.24 2.24 2.21 2.12 2.09 1.99 1.75 1.80 1.73 1.69 1.69 1.73 1.95 2.19 2.31 2.16 2.13 1.99 1.95 2.11 2.29 2.45 2.94 2.95 2.76
0.00 0.02 0.03 0.04 0.05 0.07 0.11 0.26 0.43 0.55 0.63 0.78 0.99 1.12 1.45 1.95 2.22 2.23 2.44 2.59 2.55 2.84 2.84 2.85 2.81 2.94 2.88 2.72 2.57 2.37 2.20 2.06 2.02 2.07 2.07 1.96 1.98 2.18 2.21 2.04 1.94 1.99 2.12 2.30 2.32 2.45 2.76 2.52 2.52
0.02 0.08 0.11 0.11 0.10 0.10 0.17 0.47 0.59 0.67 0.67 0.86 1.06 1.23 1.51 1.80 2.15 2.29 2.50 2.69 2.78 3.10 3.22 3.39 3.40 3.39 3.26 3.24 3.15 2.90 2.67 2.51 2.35 2.29 2.31 2.14 2.05 2.07 2.23 2.04 1.89 2.20 2.27 2.35 2.57 2.71 2.72 2.67 2.68
0.05 0.07 0.09 0.12 0.10 0.09 0.16 0.41 0.52 0.69 0.91 1.07 1.25 1.41 1.44 1.71 2.03 2.38 2.65 2.98 3.27 3.58 3.81 3.96 3.96 3.82 3.57 3.59 3.55 3.39 3.22 2.90 2.55 2.40 2.30 2.14 2.06 2.13 2.39 2.37 2.46 2.52 2.57 2.60 2.47 2.78 2.81 2.70 2.71
0.04 0.06 0.08 0.12 0.11 0.10 0.21 0.46 0.58 0.75 0.98 1.04 1.30 1.46 1.55 1.64 2.08 2.53 2.73 3.14 3.63 4.11 4.50 4.31 4.18 4.35 4.23 4.05 3.88 3.59 3.14 2.74 2.61 2.54 2.35 2.20 2.18 2.25 2.60 2.46 2.46 2.55 2.70 2.74 2.68 2.72 2.72 2.46 2.43
0.04 0.06 0.09 0.12 0.11 0.14 0.27 0.53 0.79 0.89 1.16 1.12 1.15 1.30 1.46 1.60 1.89 2.31 2.61 3.17 3.79 4.16 4.55 4.70 4.68 4.55 4.33 3.91 3.56 3.30 3.07 2.91 2.66 2.49 2.40 2.27 2.14 2.24 2.58 2.48 2.65 2.60 2.61 2.62 2.64 2.68 2.54 2.17 2.36
0.04 0.07 0.10 0.15 0.15 0.19 0.37 0.59 0.89 0.89 0.98 1.04 0.95 0.99 1.18 1.55 1.80 2.33 2.62 2.83 3.30 3.82 4.28 4.56 4.70 4.58 4.18 3.75 3.51 3.35 3.29 2.92 2.62 2.58 2.60 2.43 2.44 2.44 2.45 2.57 2.54 2.57 2.68 2.59 2.54 2.60 2.43 2.05 2.19
0.06 0.07 0.10 0.10 0.14 0.27 0.40 0.79 1.06 0.96 0.91 0.94 0.93 0.99 1.17 1.63 2.07 2.33 2.52 2.68 2.96 3.35 3.66 3.78 3.93 3.89 3.72 3.72 3.70 3.61 3.54 3.08 2.93 2.91 2.88 2.72 2.68 2.63 2.60 2.57 2.46 2.40 2.27 2.30 2.36 2.36 2.35 2.22 2.11
0.08 0.07 0.06 0.07 0.14 0.34 0.40 0.86 1.30 1.15 1.01 1.06 1.12 1.07 1.35 1.68 1.71 1.87 2.18 2.49 2.66 2.89 3.24 3.47 3.53 3.48 3.38 3.46 3.47 3.33 3.11 2.92 3.01 3.26 3.23 2.96 2.71 2.50 2.27 2.16 2.20 2.18 2.06 2.06 1.85 1.93 2.07 2.05 1.88
0.07 0.06 0.06 0.09 0.16 0.33 0.42 0.65 1.19 1.24 1.25 1.14 1.16 1.27 1.49 1.52 1.46 1.57 1.77 2.08 2.19 2.50 2.79 3.04 3.31 3.39 3.32 3.35 3.27 3.25 3.12 3.11 3.14 3.08 3.03 2.78 2.54 2.20 1.89 1.81 1.88 1.87 1.79 1.72 1.67 1.80 1.72 1.66 1.64
0.05 0.06 0.12 0.19 0.31 0.66 0.52 0.53 1.00 1.18 1.03 0.97 1.07 1.10 1.29 1.30 1.31 1.49 1.65 1.87 1.99 2.15 2.26 2.40 2.61 2.88 3.03 3.06 3.03 3.05 2.98 2.96 2.89 2.75 2.58 2.36 2.16 1.88 1.62 1.49 1.60 1.70 1.73 1.68 1.65 1.73 1.63 1.62 1.72
0.06 0.10 0.39 0.74 0.98 1.03 0.56 0.60 1.06 0.93 0.74 0.75 0.94 0.99 1.05 1.03 1.01 1.23 1.36 1.47 1.61 1.73 1.83 1.95 2.15 2.47 2.61 2.57 2.56 2.68 2.73 2.75 2.65 2.59 2.41 2.17 1.89 1.59 1.53 1.53 1.58 1.63 1.71 1.61 1.63 1.68 1.72 1.82 1.86
0.08 0.10 0.34 0.62 0.75 0.82 0.67 1.02 1.46 0.98 0.76 0.80 0.84 0.85 0.83 0.80 0.77 0.93 1.14 1.35 1.41 1.45 1.57 1.70 1.93 2.15 2.22 2.14 2.26 2.47 2.55 2.64 2.52 2.53 2.28 2.02 1.81 1.69 1.72 1.67 1.55 1.52 1.61 1.53 1.72 1.65 1.68 1.84 1.83
0.09 0.08 0.14 0.28 0.37 0.60 0.84 1.14 1.19 0.74 0.65 0.74 0.76 0.77 0.84 0.81 0.75 0.82 0.90 1.07 1.12 1.18 1.30 1.44 1.78 2.05 2.12 2.11 2.23 2.35 2.43 2.42 2.33 2.21 2.05 1.86 1.87 1.81 1.91 1.84 1.71 1.61 1.66 1.78 2.00 1.94 1.93 2.08 2.02
0.10 0.11 0.16 0.22 0.37 0.60 0.81 1.11 1.26 0.89 0.72 0.53 0.49 0.53 0.51 0.53 0.54 0.61 0.66 0.76 0.88 1.10 1.36 1.50 1.62 1.89 2.01 2.02 2.04 2.07 2.24 2.20 2.09 2.02 1.87 1.73 1.64 1.68 1.82 1.94 1.88 1.79 1.80 1.95 2.09 2.09 2.22 2.34 2.28
0.13 0.12 0.14 0.17 0.21 0.41 0.81 1.04 0.84 0.70 0.59 0.54 0.50 0.54 0.47 0.40 0.41 0.49 0.62 0.76 0.92 1.07 1.24 1.34 1.39 1.53 1.67 1.75 1.87 1.87 1.88 1.95 1.98 1.86 1.69 1.63 1.60 1.63 1.70 1.86 1.93 1.87 1.86 1.98 2.03 1.98 2.22 2.32 2.30
0.14 0.12 0.13 0.17 0.17 0.26 0.47 0.68 0.55 0.61 0.60 0.52 0.54 0.60 0.60 0.56 0.50 0.54 0.72 0.88 1.00 1.13 1.15 1.16 1.20 1.32 1.47 1.63 1.82 1.92 1.93 1.96 1.92 1.74 1.60 1.59 1.61 1.68 1.74 1.84 1.86 1.76 1.77 1.91 1.94 1.99 2.19 2.27 2.16

GEFSSGP_prec_meanprecacc_228.txt.gz
Total_Precipitation_Accumulation
0.05 0.12 0.33 0.55 0.97 1.74 1.63 1.03 0.52 0.31 0.30 0.37 0.43 0.46 0.52 0.54 0.70 1.14 0.84 0.63 0.41 0.48 0.54 0.61 0.62 0.53 0.50 0.58 0.63 0.66 0.70 0.69 0.67 0.67 0.69 0.72 0.70 0.66 0.67 0.67 0.64 0.64 0.65 0.57 0.52 0.49 0.44 0.45 0.45
0.08 0.19 0.42 0.62 1.32 1.83 1.35 1.16 0.46 0.27 0.23 0.32 0.39 0.43 0.48 0.47 0.31 0.44 0.67 0.62 0.45 0.47 0.42 0.38 0.46 0.48 0.49 0.59 0.66 0.81 0.80 0.75 0.69 0.70 0.67 0.62 0.61 0.60 0.58 0.58 0.58 0.61 0.56 0.50 0.44 0.41 0.37 0.37 0.37
0.11 0.22 0.42 0.62 0.99 1.10 0.75 0.59 0.28 0.24 0.26 0.30 0.37 0.39 0.42 0.52 0.36 0.45 0.55 0.46 0.42 0.40 0.39 0.43 0.47 0.46 0.54 0.62 0.69 0.76 0.68 0.62 0.62 0.66 0.64 0.62 0.60 0.59 0.58 0.56 0.54 0.54 0.49 0.43 0.37 0.37 0.36 0.35 0.39
0.11 0.21 0.32 0.47 0.50 0.54 0.46 0.32 0.21 0.18 0.22 0.29 0.33 0.35 0.46 0.44 0.32 0.45 0.51 0.52 0.38 0.33 0.37 0.42 0.45 0.49 0.53 0.54 0.58 0.64 0.63 0.57 0.58 0.59 0.61 0.62 0.60 0.61 0.56 0.49 0.47 0.45 0.45 0.41 0.39 0.37 0.37 0.38 0.44
0.11 0.25 0.36 0.37 0.31 0.40 0.39 0.29 0.23 0.16 0.15 0.28 0.39 0.52 0.62 0.49 0.35 0.50 0.54 0.58 0.45 0.36 0.41 0.42 0.51 0.54 0.53 0.49 0.53 0.54 0.55 0.56 0.59 0.57 0.55 0.55 0.53 0.55 0.51 0.44 0.40 0.41 0.40 0.37 0.38 0.38 0.42 0.46 0.51
0.13 0.25 0.27 0.24 0.24 0.31 0.29 0.21 0.19 0.18 0.22 0.27 0.40 0.65 0.78 0.66 0.45 0.48 0.60 0.54 0.54 0.55 0.56 0.54 0.61 0.59 0.58 0.55 0.55 0.51 0.50 0.51 0.47 0.46 0.48 0.46 0.43 0.47 0.51 0.48 0.40 0.38 0.39 0.36 0.35 0.37 0.45 0.53 0.58
0.12 0.18 0.16 0.14 0.18 0.25 0.24 0.18 0.17 0.15 0.18 0.29 0.37 0.70 0.93 1.02 0.74 0.60 0.71 0.79 0.88 0.81 0.68 0.65 0.72 0.71 0.67 0.74 0.66 0.58 0.52 0.50 0.49 0.47 0.48 0.47 0.43 0.42 0.44 0.52 0.48 0.41 0.45 0.43 0.42 0.41 0.48 0.54 0.61
0.05 0.08 0.12 0.12 0.10 0.19 0.20 0.18 0.16 0.16 0.18 0.27 0.36 0.57 0.92 0.88 0.65 0.69 1.03 1.17 1.38 1.27 1.04 0.90 0.83 0.74 0.70 0.71 0.71 0.66 0.59 0.53 0.53 0.52 0.47 0.50 0.49 0.46 0.50 0.48 0.52 0.51 0.55 0.60 0.56 0.53 0.55 0.57 0.59
0.04 0.05 0.09 0.09 0.07 0.10 0.12 0.14 0.14 0.13 0.17 0.34 0.47 0.59 0.76 0.67 0.62 0.74 1.35 1.55 1.65 1.56 1.38 1.13 0.93 0.86 0.85 0.73 0.68 0.76 0.73 0.67 0.67 0.67 0.63 0.75 0.88 0.76 0.80 0.69 0.77 0.76 0.78 0.81 0.81 0.83 0.84 0.81 0.72
0.03 0.03 0.04 0.04 0.04 0.05 0.09 0.14 0.13 0.15 0.30 0.66 0.89 0.88 0.84 0.76 0.87 1.10 1.50 1.55 1.74 1.81 1.53 1.33 1.13 0.96 0.86 0.75 0.85 1.08 0.91 0.90 0.99 1.06 1.06 1.28 1.47 1.44 0.95 0.96 1.22 1.28 1.34 1.32 1.33 1.34 1.17 1.03 0.99
0.02 0.03 0.02 0.02 0.02 0.03 0.06 0.12 0.14 0.18 0.53 0.97 1.27 1.09 0.96 1.04 1.12 1.39 1.79 2.02 2.01 2.11 1.84 1.59 1.34 1.10 0.99 1.06 0.95 1.09 1.25 1.33 1.35 1.35 1.35 1.52 1.43 1.23 1.07 1.18 1.45 1.68 1.74 1.63 1.80 1.87 1.55 1.61 1.88
0.02 0.02 0.01 0.01 0.02 0.03 0.06 0.09 0.14 0.24 0.49 0.69 0.86 1.02 1.12 1.27 1.52 1.76 1.88 2.15 2.19 2.23 2.08 2.02 1.65 1.45 1.54 1.40 1.12 1.04 1.08 1.20 1.38 1.61 1.57 1.63 1.82 1.73 1.66 1.73 1.78 1.89 2.07 2.32 2.24 2.41 2.27 2.22 2.11
0.01 0.02 0.01 0.01 0.02 0.03 0.05 0.08 0.18 0.32 0.43 0.53 0.85 1.19 1.44 1.47 1.76 2.03 2.13 2.41 2.28 2.22 2.22 2.22 2.05 1.86 1.92 1.73 1.53 1.31 1.42 1.44 1.49 1.62 1.77 1.71 1.93 2.10 2.09 2.06 2.03 1.91 1.98 2.14 2.33 2.37 2.71 2.83 2.47
0.00 0.01 0.01 0.01 0.02 0.04 0.08 0.13 0.23 0.37 0.53 0.72 0.94 1.21 1.51 1.77 1.98 2.07 2.42 2.63 2.61 2.48 2.51 2.34 2.27 2.26 2.25 2.16 2.12 2.02 1.78 1.84 1.76 1.71 1.71 1.76 1.98 2.23 2.35 2.22 2.18 2.04 2.01 2.15 2.31 2.47 2.95 2.97 2.79
0.00 0.02 0.03 0.04 0.05 0.07 0.11 0.27 0.43 0.55 0.63 0.78 0.99 1.12 1.45 1.96 2.23 2.24 2.47 2.63 2.58 2.87 2.88 2.88 2.85 2.98 2.90 2.74 2.61 2.40 2.23 2.09 2.05 2.09 2.10 1.99 2.02 2.22 2.25 2.08 1.98 2.04 2.19 2.36 2.37 2.48 2.77 2.55 2.55
0.02 0.08 0.11 0.12 0.10 0.10 0.17 0.47 0.59 0.67 0.67 0.86 1.06 1.23 1.52 1.81 2.16 2.30 2.52 2.72 2.80 3.12 3.24 3.41 3.43 3.42 3.27 3.25 3.18 2.92 2.69 2.53 2.37 2.32 2.34 2.17 2.09 2.11 2.28 2.10 1.95 2.26 2.31 2.40 2.63 2.75 2.76 2.71 2.72
0.05 0.07 0.09 0.12 0.10 0.09 0.16 0.41 0.52 0.69 0.91 1.08 1.26 1.41 1.45 1.72 2.04 2.39 2.67 3.01 3.29 3.59 3.82 3.97 3.98 3.84 3.59 3.61 3.58 3.42 3.24 2.91 2.56 2.41 2.33 2.17 2.11 2.19 2.44 2.42 2.51 2.56 2.60 2.63 2.50 2.81 2.85 2.73 2.74
0.04 0.06 0.08 0.12 0.11 0.10 0.21 0.46 0.58 0.75 0.99 1.04 1.30 1.47 1.55 1.65 2.09 2.54 2.75 3.15 3.64 4.12 4.50 4.32 4.20 4.37 4.24 4.07 3.90 3.61 3.16 2.76 2.62 2.56 2.38 2.23 2.23 2.31 2.66 2.52 2.52 2.58 2.72 2.76 2.71 2.76 2.76 2.50 2.48
0.04 0.06 0.10 0.13 0.11 0.14 0.27 0.53 0.79 0.89 1.16 1.13 1.15 1.30 1.46 1.60 1.90 2.33 2.63 3.19 3.80 4.17 4.56 4.70 4.69 4.56 4.34 3.92 3.57 3.31 3.09 2.93 2.69 2.51 2.43 2.29 2.18 2.29 2.64 2.55 2.72 2.66 2.65 2.64 2.68 2.73 2.59 2.22 2.42
0.05 0.07 0.10 0.15 0.15 0.20 0.37 0.59 0.89 0.90 0.98 1.04 0.96 0.99 1.18 1.55 1.81 2.33 2.63 2.84 3.32 3.83 4.28 4.57 4.71 4.59 4.19 3.76 3.52 3.37 3.31 2.94 2.64 2.61 2.64 2.46 2.47 2.49 2.50 2.63 2.61 2.64 2.73 2.64 2.59 2.65 2.48 2.10 2.25
0.06 0.07 0.10 0.10 0.14 0.27 0.40 0.79 1.07 0.96 0.92 0.94 0.93 0.99 1.17 1.63 2.07 2.33 2.53 2.69 2.97 3.36 3.67 3.79 3.94 3.90 3.73 3.73 3.71 3.62 3.56 3.10 2.96 2.94 2.91 2.74 2.72 2.70 2.68 2.65 2.54 2.49 2.34 2.36 2.41 2.41 2.41 2.26 2.16
0.08 0.07 0.06 0.07 0.14 0.34 0.40 0.86 1.31 1.15 1.01 1.06 1.12 1.07 1.35 1.68 1.71 1.87 2.18 2.50 2.67 2.91 3.25 3.48 3.54 3.49 3.39 3.47 3.48 3.34 3.12 2.94 3.04 3.30 3.26 2.99 2.75 2.56 2.36 2.25 2.30 2.27 2.13 2.12 1.90 1.99 2.11 2.08 1.92
0.07 0.06 0.06 0.09 0.16 0.33 0.42 0.65 1.19 1.25 1.25 1.14 1.16 1.28 1.49 1.52 1.46 1.57 1.77 2.09 2.20 2.51 2.80 3.05 3.31 3.40 3.33 3.36 3.28 3.27 3.14 3.13 3.17 3.12 3.07 2.82 2.58 2.26 1.96 1.90 1.97 1.96 1.87 1.80 1.74 1.86 1.77 1.70 1.68
0.05 0.07 0.12 0.19 0.31 0.66 0.52 0.54 1.00 1.18 1.03 0.97 1.08 1.11 1.30 1.30 1.31 1.49 1.65 1.88 2.00 2.15 2.27 2.41 2.63 2.90 3.05 3.09 3.05 3.07 3.00 2.99 2.91 2.79 2.62 2.39 2.20 1.93 1.68 1.55 1.66 1.76 1.78 1.75 1.73 1.80 1.70 1.67 1.79
0.06 0.10 0.39 0.74 0.98 1.03 0.56 0.60 1.06 0.93 0.74 0.76 0.95 1.00 1.06 1.03 1.01 1.23 1.37 1.47 1.62 1.75 1.84 1.96 2.16 2.49 2.63 2.62 2.59 2.71 2.76 2.78 2.68 2.62 2.43 2.20 1.93 1.64 1.59 1.58 1.63 1.68 1.76 1.66 1.69 1.74 1.78 1.89 1.92
0.08 0.10 0.34 0.62 0.75 0.82 0.67 1.02 1.46 0.98 0.76 0.81 0.85 0.85 0.83 0.80 0.77 0.93 1.14 1.35 1.42 1.46 1.58 1.72 1.94 2.17 2.26 2.21 2.32 2.52 2.59 2.67 2.55 2.56 2.31 2.05 1.84 1.74 1.77 1.74 1.61 1.57 1.66 1.58 1.78 1.70 1.72 1.89 1.90
0.09 0.08 0.15 0.28 0.37 0.60 0.84 1.14 1.19 0.74 0.65 0.74 0.77 0.77 0.84 0.81 0.75 0.82 0.90 1.07 1.13 1.19 1.31 1.46 1.81 2.08 2.17 2.20 2.33 2.41 2.48 2.46 2.36 2.27 2.10 1.90 1.91 1.86 1.96 1.90 1.76 1.66 1.72 1.84 2.06 1.98 1.96 2.13 2.07
0.10 0.11 0.16 0.23 0.37 0.60 0.81 1.11 1.26 0.89 0.72 0.53 0.49 0.53 0.51 0.53 0.54 0.61 0.66 0.76 0.89 1.10 1.36 1.52 1.65 1.94 2.06 2.06 2.13 2.14 2.29 2.24 2.13 2.07 1.91 1.77 1.68 1.73 1.88 1.99 1.92 1.84 1.86 2.00 2.14 2.13 2.27 2.39 2.33
0.13 0.12 0.14 0.17 0.22 0.41 0.81 1.04 0.84 0.70 0.59 0.54 0.50 0.54 0.47 0.40 0.42 0.49 0.62 0.76 0.93 1.08 1.24 1.34 1.40 1.55 1.69 1.79 1.96 1.93 1.91 1.99 2.03 1.90 1.73 1.67 1.64 1.68 1.75 1.92 1.98 1.92 1.93 2.04 2.09 2.05 2.29 2.39 2.36
0.14 0.12 0.13 0.18 0.18 0.26 0.47 0.68 0.55 0.61 0.60 0.52 0.54 0.60 0.60 0.56 0.50 0.55 0.72 0.89 1.01 1.14 1.15 1.17 1.23 1.36 1.50 1.66 1.86 1.95 1.96 2.00 1.97 1.79 1.65 1.63 1.64 1.70 1.77 1.89 1.91 1.82 1.82 1.97 2.00 2.05 2.25 2.34 2.23

GEFSSGP_prec_meanprecacc_234.txt.gz
Total_Precipitation_Accumulation
0.05 0.12 0.33 0.55 0.97 1.74 1.63 1.03 0.52 0.32 0.31 0.37 0.44 0.47 0.53 0.55 0.73 1.20 0.90 0.67 0.47 0.54 0.61 0.70 0.77 0.65 0.61 0.68 0.72 0.73 0.78 0.77 0.76 0.75 0.78 0.82 0.82 0.78 0.80 0.80 0.75 0.74 0.75 0.65 0.59 0.55 0.49 0.48 0.48
0.08 0.19 0.42 0.62 1.32 1.83 1.36 1.16 0.46 0.27 0.23 0.33 0.39 0.43 0.48 0.49 0.35 0.48 0.71 0.65 0.49 0.51 0.47 0.43 0.57 0.59 0.59 0.67 0.73 0.87 0.87 0.81 0.74 0.76 0.75 0.76 0.85 0.83 0.75 0.67 0.65 0.69 0.63 0.57 0.51 0.47 0.41 0.40 0.39
0.11 0.22 0.42 0.62 0.99 1.10 0.75 0.59 0.28 0.24 0.26 0.30 0.37 0.39 0.43 0.55 0.42 0.52 0.61 0.49 0.46 0.44 0.45 0.50 0.57 0.56 0.62 0.68 0.75 0.82 0.74 0.67 0.68 0.71 0.70 0.75 0.78 0.74 0.68 0.63 0.60 0.63 0.57 0.50 0.44 0.42 0.40 0.40 0.42
0.11 0.21 0.32 0.47 0.50 0.54 0.46 0.33 0.21 0.19 0.22 0.29 0.33 0.35 0.48 0.48 0.37 0.50 0.56 0.56 0.42 0.37 0.42 0.46 0.52 0.56 0.59 0.59 0.62 0.69 0.69 0.61 0.63 0.64 0.67 0.69 0.69 0.71 0.64 0.56 0.54 0.55 0.53 0.48 0.46 0.42 0.41 0.43 0.48
0.11 0.25 0.36 0.37 0.31 0.40 0.39 0.29 0.23 0.16 0.16 0.29 0.40 0.53 0.64 0.53 0.38 0.54 0.58 0.61 0.47 0.39 0.44 0.46 0.57 0.62 0.59 0.55 0.57 0.57 0.60 0.61 0.63 0.62 0.60 0.60 0.58 0.61 0.57 0.50 0.47 0.48 0.45 0.43 0.45 0.43 0.46 0.49 0.53
0.13 0.25 0.27 0.24 0.24 0.31 0.29 0.21 0.19 0.18 0.22 0.28 0.41 0.66 0.81 0.70 0.48 0.51 0.62 0.56 0.56 0.57 0.59 0.58 0.66 0.66 0.63 0.59 0.60 0.56 0.55 0.56 0.52 0.51 0.51 0.50 0.46 0.50 0.55 0.55 0.45 0.42 0.42 0.40 0.40 0.41 0.48 0.55 0.60
0.12 0.18 0.16 0.14 0.18 0.25 0.24 0.18 0.17 0.15 0.18 0.30 0.38 0.71 0.96 1.04 0.77 0.62 0.73 0.81 0.90 0.84 0.73 0.69 0.77 0.78 0.72 0.79 0.71 0.63 0.56 0.54 0.52 0.50 0.52 0.50 0.45 0.43 0.46 0.55 0.51 0.43 0.47 0.46 0.45 0.46 0.52 0.57 0.63
0.05 0.08 0.12 0.12 0.10 0.19 0.20 0.18 0.16 0.16 0.19 0.27 0.37 0.58 0.94 0.90 0.66 0.71 1.05 1.19 1.40 1.30 1.08 0.94 0.88 0.81 0.77 0.76 0.75 0.70 0.63 0.57 0.57 0.55 0.50 0.53 0.52 0.48 0.52 0.51 0.54 0.53 0.58 0.63 0.60 0.61 0.62 0.62 0.62
0.04 0.05 0.09 0.09 0.07 0.10 0.12 0.14 0.14 0.13 0.17 0.35 0.48 0.60 0.78 0.68 0.63 0.75 1.36 1.57 1.67 1.58 1.42 1.17 0.98 0.91 0.90 0.78 0.72 0.80 0.77 0.72 0.71 0.70 0.66 0.78 0.89 0.77 0.82 0.71 0.81 0.80 0.82 0.86 0.91 0.96 0.92 0.86 0.76
0.03 0.03 0.04 0.04 0.04 0.05 0.09 0.14 0.13 0.15 0.30 0.66 0.89 0.88 0.85 0.77 0.88 1.11 1.51 1.57 1.75 1.83 1.56 1.36 1.18 1.00 0.89 0.78 0.89 1.12 0.94 0.94 1.02 1.08 1.09 1.29 1.49 1.46 0.96 0.98 1.25 1.32 1.39 1.37 1.42 1.49 1.26 1.08 1.03
0.02 0.03 0.02 0.02 0.02 0.03 0.06 0.12 0.14 0.18 0.53 0.97 1.28 1.10 0.97 1.05 1.14 1.41 1.81 2.03 2.03 2.13 1.86 1.63 1.37 1.13 1.01 1.07 0.97 1.11 1.28 1.36 1.37 1.37 1.38 1.54 1.44 1.24 1.09 1.21 1.47 1.70 1.76 1.67 1.86 1.95 1.63 1.67 1.92
0.02 0.02 0.01 0.01 0.02 0.03 0.06 0.09 0.14 0.24 0.49 0.69 0.87 1.03 1.13 1.29 1.55 1.80 1.94 2.18 2.21 2.26 2.12 2.07 1.67 1.47 1.56 1.41 1.14 1.05 1.09 1.22 1.40 1.62 1.58 1.66 1.86 1.76 1.69 1.76 1.80 1.91 2.09 2.36 2.28 2.46 2.33 2.27 2.16
0.01 0.02 0.01 0.01 0.02 0.03 0.05 0.08 0.18 0.32 0.43 0.53 0.85 1.19 1.44 1.47 1.79 2.09 2.22 2.46 2.31 2.26 2.27 2.26 2.08 1.89 1.95 1.75 1.55 1.32 1.43 1.45 1.51 1.64 1.79 1.73 1.97 2.16 2.14 2.10 2.06 1.94 2.01 2.16 2.36 2.41 2.77 2.91 2.53
0.00 0.01 0.01 0.01 0.02 0.04 0.08 0.13 0.23 0.37 0.53 0.72 0.95 1.21 1.51 1.78 1.98 2.10 2.48 2.67 2.66 2.54 2.58 2.39 2.30 2.30 2.28 2.20 2.16 2.05 1.80 1.86 1.78 1.73 1.73 1.78 2.02 2.29 2.41 2.27 2.24 2.09 2.05 2.19 2.36 2.52 3.02 3.04 2.84
0.00 0.02 0.03 0.04 0.05 0.07 0.11 0.27 0.43 0.55 0.63 0.78 0.99 1.13 1.46 1.97 2.24 2.26 2.54 2.67 2.60 2.92 2.94 2.94 2.89 3.01 2.93 2.77 2.64 2.42 2.24 2.11 2.07 2.12 2.13 2.03 2.06 2.29 2.32 2.14 2.05 2.11 2.26 2.43 2.44 2.54 2.84 2.61 2.60
0.02 0.08 0.11 0.12 0.10 0.11 0.17 0.47 0.59 0.67 0.67 0.86 1.06 1.23 1.53 1.82 2.17 2.32 2.59 2.76 2.82 3.15 3.29 3.45 3.46 3.45 3.29 3.28 3.22 2.95 2.72 2.55 2.40 2.34 2.38 2.22 2.15 2.19 2.36 2.17 2.02 2.33 2.37 2.47 2.73 2.84 2.85 2.77 2.79
0.05 0.07 0.09 0.12 0.10 0.09 0.16 0.41 0.52 0.69 0.91 1.08 1.26 1.41 1.45 1.73 2.05 2.41 2.70 3.04 3.31 3.61 3.86 4.00 4.00 3.86 3.60 3.63 3.61 3.45 3.28 2.95 2.59 2.44 2.36 2.21 2.16 2.25 2.50 2.48 2.58 2.62 2.66 2.70 2.57 2.89 2.93 2.81 2.83
0.04 0.06 0.08 0.12 0.11 0.10 0.21 0.46 0.58 0.75 0.99 1.04 1.30 1.47 1.55 1.65 2.10 2.54 2.76 3.17 3.64 4.13 4.52 4.34 4.21 4.39 4.26 4.09 3.94 3.65 3.21 2.79 2.66 2.61 2.42 2.26 2.28 2.36 2.71 2.57 2.58 2.64 2.79 2.85 2.81 2.86 2.85 2.60 2.57
0.04 0.06 0.10 0.13 0.11 0.14 0.27 0.53 0.79 0.89 1.16 1.13 1.15 1.30 1.46 1.61 1.91 2.33 2.63 3.19 3.80 4.17 4.56 4.71 4.70 4.58 4.36 3.95 3.61 3.36 3.14 2.97 2.72 2.55 2.47 2.35 2.24 2.36 2.72 2.60 2.78 2.74 2.73 2.74 2.77 2.82 2.69 2.31 2.49
0.05 0.07 0.10 0.15 0.15 0.20 0.37 0.59 0.89 0.90 0.98 1.04 0.96 0.99 1.18 1.55 1.81 2.33 2.63 2.85 3.32 3.83 4.29 4.57 4.72 4.60 4.20 3.78 3.55 3.40 3.35 2.98 2.68 2.65 2.69 2.52 2.54 2.56 2.58 2.71 2.69 2.73 2.83 2.75 2.70 2.74 2.56 2.17 2.33
0.06 0.07 0.10 0.10 0.14 0.27 0.40 0.79 1.07 0.96 0.92 0.94 0.93 0.99 1.17 1.63 2.07 2.33 2.53 2.69 2.97 3.36 3.67 3.79 3.94 3.90 3.73 3.74 3.74 3.65 3.60 3.14 3.01 3.00 2.97 2.79 2.77 2.76 2.74 2.71 2.61 2.58 2.44 2.45 2.50 2.50 2.50 2.35 2.23
0.08 0.07 0.06 0.07 0.14 0.34 0.40 0.86 1.31 1.15 1.01 1.06 1.12 1.07 1.35 1.68 1.71 1.87 2.18 2.50 2.68 2.91 3.26 3.49 3.54 3.49 3.39 3.48 3.50 3.38 3.16 2.98 3.08 3.34 3.29 3.02 2.78 2.60 2.39 2.29 2.35 2.35 2.21 2.20 1.97 2.06 2.20 2.19 2.02
0.07 0.06 0.06 0.09 0.16 0.33 0.42 0.65 1.19 1.25 1.25 1.14 1.16 1.28 1.49 1.52 1.46 1.57 1.77 2.09 2.20 2.51 2.80 3.05 3.32 3.40 3.34 3.38 3.30 3.30 3.18 3.16 3.19 3.13 3.09 2.85 2.62 2.30 1.99 1.95 2.03 2.03 1.95 1.88 1.82 1.95 1.86 1.79 1.78
0.05 0.07 0.12 0.19 0.31 0.66 0.52 0.54 1.00 1.18 1.03 0.97 1.08 1.11 1.30 1.30 1.31 1.49 1.65 1.88 2.00 2.15 2.27 2.41 2.63 2.90 3.07 3.11 3.08 3.11 3.04 3.01 2.93 2.81 2.65 2.43 2.24 1.97 1.73 1.60 1.72 1.82 1.86 1.83 1.80 1.88 1.77 1.75 1.87
0.06 0.10 0.39 0.74 0.98 1.03 0.56 0.60 1.06 0.93 0.74 0.76 0.95 1.00 1.06 1.03 1.01 1.23 1.37 1.47 1.62 1.75 1.84 1.96 2.16 2.49 2.66 2.65 2.63 2.75 2.79 2.79 2.70 2.65 2.47 2.23 1.98 1.70 1.64 1.63 1.69 1.74 1.81 1.71 1.75 1.80 1.83 1.95 1.99
0.08 0.10 0.34 0.62 0.75 0.82 0.67 1.02 1.46 0.98 0.76 0.81 0.85 0.85 0.83 0.80 0.77 0.93 1.14 1.35 1.42 1.46 1.58 1.72 1.94 2.17 2.27 2.22 2.35 2.54 2.61 2.69 2.57 2.58 2.33 2.07 1.87 1.77 1.81 1.78 1.66 1.61 1.70 1.62 1.83 1.75 1.78 1.95 1.95
0.09 0.08 0.15 0.28 0.37 0.60 0.84 1.14 1.19 0.74 0.65 0.74 0.77 0.77 0.84 0.81 0.75 0.82 0.90 1.07 1.13 1.19 1.31 1.46 1.81 2.09 2.19 2.22 2.35 2.44 2.50 2.48 2.38 2.28 2.11 1.92 1.92 1.87 1.98 1.93 1.80 1.70 1.76 1.88 2.12 2.03 2.01 2.18 2.11
0.10 0.11 0.17 0.23 0.37 0.60 0.81 1.11 1.26 0.89 0.72 0.53 0.49 0.53 0.51 0.53 0.54 0.61 0.66 0.77 0.89 1.10 1.36 1.52 1.65 1.94 2.07 2.08 2.15 2.17 2.32 2.27 2.15 2.08 1.93 1.78 1.69 1.74 1.90 2.01 1.95 1.87 1.90 2.05 2.20 2.18 2.32 2.44 2.38
0.13 0.12 0.14 0.18 0.22 0.41 0.81 1.04 0.84 0.70 0.59 0.54 0.50 0.54 0.47 0.40 0.42 0.49 0.62 0.76 0.93 1.08 1.24 1.34 1.40 1.56 1.70 1.80 1.97 1.95 1.93 2.02 2.05 1.91 1.73 1.67 1.65 1.69 1.77 1.94 2.01 1.99 2.02 2.11 2.14 2.10 2.36 2.45 2.43
0.14 0.12 0.13 0.18 0.18 0.26 0.47 0.68 0.55 0.61 0.60 0.52 0.54 0.60 0.60 0.56 0.50 0.55 0.72 0.89 1.01 1.14 1.16 1.17 1.23 1.37 1.52 1.70 1.89 1.96 1.97 2.01 1.97 1.80 1.65 1.63 1.65 1.73 1.80 1.92 1.93 1.86 1.87 2.04 2.06 2.11 2.32 2.41 2.30

GEFSSGP_prec_meanprecacc_240.txt.gz
Total_Precipitation_Accumulation
0.05 0.12 0.33 0.55 1.00 1.76 1.64 1.04 0.53 0.33 0.31 0.38 0.45 0.48 0.54 0.57 0.77 1.28 1.01 0.74 0.52 0.58 0.65 0.75 0.87 0.76 0.70 0.78 0.82 0.84 0.89 0.86 0.84 0.82 0.85 0.88 0.90 0.87 0.91 0.91 0.84 0.83 0.84 0.73 0.66 0.59 0.53 0.50 0.49
0.08 0.19 0.42 0.63 1.35 1.83 1.36 1.16 0.47 0.29 0.23 0.33 0.40 0.45 0.50 0.49 0.36 0.53 0.79 0.72 0.52 0.53 0.51 0.46 0.64 0.66 0.66 0.75 0.81 0.95 0.96 0.90 0.83 0.83 0.82 0.84 0.95 0.94 0.86 0.78 0.74 0.78 0.72 0.65 0.57 0.50 0.44 0.42 0.40
0.11 0.22 0.42 0.63 0.99 1.10 0.76 0.60 0.29 0.25 0.26 0.30 0.38 0.40 0.46 0.58 0.45 0.58 0.67 0.54 0.48 0.46 0.48 0.53 0.62 0.61 0.68 0.75 0.83 0.91 0.82 0.76 0.78 0.80 0.80 0.88 0.89 0.84 0.78 0.73 0.71 0.72 0.65 0.57 0.48 0.45 0.42 0.41 0.43
0.11 0.21 0.33 0.47 0.50 0.54 0.46 0.33 0.22 0.20 0.23 0.30 0.34 0.38 0.51 0.51 0.39 0.54 0.60 0.58 0.43 0.39 0.44 0.49 0.55 0.59 0.64 0.64 0.67 0.77 0.80 0.74 0.76 0.75 0.78 0.80 0.81 0.84 0.76 0.65 0.63 0.65 0.62 0.55 0.52 0.45 0.43 0.44 0.49
0.12 0.25 0.37 0.37 0.31 0.40 0.39 0.29 0.24 0.18 0.17 0.30 0.40 0.55 0.69 0.57 0.40 0.57 0.62 0.63 0.49 0.42 0.46 0.47 0.59 0.64 0.62 0.59 0.60 0.62 0.68 0.71 0.74 0.73 0.74 0.75 0.74 0.74 0.67 0.58 0.55 0.58 0.54 0.50 0.50 0.47 0.48 0.51 0.55
0.14 0.25 0.27 0.24 0.24 0.31 0.29 0.21 0.19 0.19 0.23 0.28 0.41 0.66 0.85 0.76 0.53 0.55 0.66 0.59 0.58 0.59 0.60 0.60 0.69 0.69 0.66 0.61 0.62 0.59 0.58 0.60 0.58 0.57 0.60 0.62 0.58 0.60 0.64 0.63 0.52 0.50 0.48 0.46 0.46 0.46 0.50 0.56 0.62
0.12 0.18 0.16 0.14 0.18 0.25 0.24 0.18 0.17 0.15 0.19 0.31 0.39 0.72 1.00 1.11 0.82 0.66 0.76 0.83 0.92 0.85 0.74 0.73 0.81 0.81 0.73 0.80 0.73 0.65 0.58 0.56 0.55 0.53 0.55 0.55 0.51 0.51 0.56 0.64 0.58 0.49 0.51 0.52 0.52 0.52 0.54 0.59 0.65
0.05 0.08 0.12 0.12 0.10 0.19 0.20 0.18 0.16 0.16 0.19 0.28 0.37 0.59 0.97 0.94 0.69 0.74 1.07 1.22 1.43 1.32 1.11 0.98 0.93 0.85 0.79 0.78 0.76 0.72 0.65 0.60 0.59 0.56 0.52 0.56 0.56 0.53 0.58 0.58 0.61 0.58 0.62 0.72 0.70 0.66 0.65 0.64 0.64
0.04 0.05 0.09 0.09 0.07 0.10 0.12 0.14 0.14 0.13 0.17 0.35 0.48 0.60 0.79 0.70 0.66 0.78 1.39 1.60 1.69 1.60 1.46 1.23 1.02 0.95 0.93 0.80 0.73 0.83 0.80 0.75 0.74 0.73 0.68 0.82 0.95 0.82 0.87 0.76 0.85 0.84 0.86 0.96 1.00 1.01 0.95 0.89 0.78
0.03 0.03 0.04 0.04 0.04 0.05 0.09 0.14 0.14 0.16 0.31 0.66 0.89 0.88 0.85 0.78 0.90 1.14 1.57 1.61 1.78 1.85 1.60 1.43 1.22 1.03 0.92 0.80 0.92 1.17 0.98 0.99 1.07 1.13 1.13 1.35 1.55 1.52 1.00 1.02 1.27 1.34 1.42 1.45 1.50 1.56 1.33 1.12 1.07
0.02 0.03 0.02 0.02 0.02 0.03 0.06 0.12 0.14 0.18 0.53 0.97 1.28 1.10 0.98 1.05 1.15 1.44 1.85 2.08 2.05 2.16 1.90 1.68 1.43 1.18 1.04 1.10 0.99 1.14 1.31 1.40 1.43 1.42 1.43 1.59 1.49 1.26 1.11 1.24 1.51 1.73 1.80 1.75 1.98 2.02 1.69 1.72 1.97
0.02 0.02 0.01 0.01 0.02 0.03 0.06 0.09 0.14 0.25 0.49 0.69 0.87 1.03 1.13 1.29 1.56 1.81 1.96 2.20 2.23 2.28 2.15 2.11 1.72 1.53 1.60 1.42 1.15 1.07 1.11 1.24 1.43 1.66 1.61 1.71 1.93 1.81 1.71 1.81 1.84 1.94 2.14 2.46 2.41 2.55 2.39 2.32 2.20
0.01 0.02 0.01 0.01 0.02 0.03 0.05 0.08 0.18 0.32 0.43 0.53 0.85 1.19 1.44 1.48 1.80 2.11 2.24 2.50 2.34 2.28 2.29 2.30 2.11 1.93 2.00 1.79 1.58 1.33 1.44 1.46 1.53 1.65 1.80 1.76 2.03 2.22 2.18 2.14 2.10 1.95 2.03 2.22 2.46 2.49 2.84 2.96 2.56
0.00 0.01 0.01 0.01 0.02 0.04 0.08 0.13 0.23 0.37 0.54 0.72 0.95 1.21 1.52 1.78 1.99 2.11 2.50 2.70 2.69 2.57 2.61 2.44 2.34 2.33 2.33 2.25 2.19 2.07 1.81 1.88 1.79 1.74 1.74 1.79 2.06 2.36 2.48 2.33 2.28 2.11 2.08 2.22 2.41 2.57 3.08 3.08 2.89
0.01 0.02 0.03 0.04 0.05 0.07 0.12 0.29 0.44 0.55 0.63 0.78 0.99 1.13 1.46 1.97 2.25 2.27 2.55 2.68 2.62 2.95 2.98 2.98 2.93 3.05 2.97 2.81 2.68 2.45 2.26 2.11 2.08 2.13 2.14 2.04 2.09 2.35 2.39 2.22 2.12 2.16 2.29 2.48 2.49 2.61 2.90 2.67 2.66
0.02 0.08 0.11 0.12 0.10 0.11 0.18 0.49 0.60 0.67 0.67 0.86 1.06 1.23 1.53 1.82 2.18 2.33 2.61 2.78 2.83 3.18 3.34 3.51 3.49 3.49 3.34 3.33 3.26 2.98 2.74 2.56 2.40 2.34 2.38 2.23 2.17 2.22 2.42 2.24 2.08 2.39 2.42 2.53 2.81 2.92 2.92 2.85 2.86
0.05 0.07 0.09 0.12 0.10 0.09 0.16 0.42 0.53 0.70 0.91 1.08 1.26 1.41 1.45 1.73 2.06 2.42 2.72 3.06 3.32 3.63 3.89 4.07 4.04 3.89 3.63 3.67 3.65 3.48 3.31 2.97 2.61 2.46 2.37 2.23 2.19 2.29 2.55 2.54 2.64 2.69 2.74 2.77 2.64 3.00 3.02 2.89 2.92
0.04 0.06 0.08 0.12 0.11 0.10 0.21 0.46 0.58 0.75 0.99 1.04 1.30 1.47 1.55 1.65 2.10 2.55 2.76 3.18 3.65 4.13 4.53 4.37 4.25 4.42 4.29 4.13 3.98 3.71 3.26 2.83 2.69 2.65 2.45 2.30 2.33 2.41 2.78 2.64 2.66 2.72 2.86 2.93 2.90 2.96 2.95 2.69 2.68
0.04 0.06 0.10 0.13 0.11 0.14 0.27 0.53 0.79 0.89 1.16 1.13 1.15 1.31 1.46 1.61 1.91 2.33 2.64 3.19 3.81 4.18 4.57 4.72 4.72 4.61 4.39 3.99 3.66 3.41 3.19 3.01 2.76 2.58 2.51 2.39 2.26 2.40 2.80 2.67 2.89 2.84 2.83 2.84 2.86 2.93 2.79 2.42 2.60
0.05 0.07 0.10 0.15 0.15 0.20 0.37 0.59 0.89 0.90 0.99 1.04 0.96 0.99 1.18 1.55 1.81 2.33 2.63 2.85 3.32 3.83 4.29 4.59 4.73 4.61 4.22 3.81 3.59 3.44 3.38 3.01 2.72 2.68 2.75 2.58 2.57 2.60 2.64 2.80 2.78 2.83 2.93 2.86 2.81 2.88 2.69 2.29 2.46
0.06 0.07 0.10 0.10 0.14 0.27 0.40 0.80 1.07 0.97 0.92 0.94 0.93 0.99 1.17 1.63 2.07 2.33 2.53 2.69 2.98 3.37 3.68 3.80 3.95 3.91 3.76 3.77 3.77 3.68 3.63 3.17 3.05 3.04 3.02 2.83 2.80 2.79 2.78 2.76 2.69 2.68 2.54 2.55 2.59 2.60 2.63 2.50 2.38
0.08 0.07 0.06 0.07 0.14 0.35 0.40 0.88 1.31 1.16 1.02 1.06 1.12 1.07 1.35 1.68 1.71 1.87 2.18 2.50 2.68 2.91 3.26 3.49 3.55 3.50 3.41 3.50 3.54 3.40 3.19 3.01 3.11 3.37 3.33 3.05 2.81 2.63 2.42 2.33 2.43 2.44 2.30 2.32 2.04 2.15 2.33 2.32 2.16
0.07 0.06 0.06 0.09 0.16 0.33 0.43 0.66 1.20 1.25 1.25 1.14 1.16 1.28 1.49 1.52 1.46 1.57 1.77 2.09 2.21 2.52 2.81 3.06 3.32 3.41 3.36 3.40 3.32 3.33 3.20 3.19 3.22 3.17 3.14 2.90 2.68 2.34 2.02 1.99 2.10 2.10 2.03 1.97 1.91 2.06 1.96 1.89 1.89
0.05 0.07 0.12 0.19 0.31 0.66 0.53 0.54 1.00 1.19 1.03 0.97 1.08 1.11 1.30 1.30 1.31 1.49 1.65 1.88 2.01 2.16 2.28 2.41 2.63 2.91 3.08 3.13 3.11 3.14 3.07 3.05 2.97 2.86 2.72 2.50 2.33 2.05 1.77 1.65 1.79 1.90 1.93 1.91 1.89 1.97 1.86 1.85 1.98
0.06 0.10 0.40 0.75 0.98 1.03 0.56 0.60 1.06 0.93 0.74 0.76 0.95 1.00 1.06 1.03 1.01 1.23 1.37 1.48 1.62 1.75 1.85 1.97 2.17 2.50 2.67 2.67 2.66 2.77 2.81 2.83 2.75 2.69 2.53 2.31 2.07 1.79 1.72 1.71 1.77 1.82 1.89 1.79 1.84 1.90 1.93 2.05 2.09
0.08 0.10 0.35 0.63 0.76 0.83 0.68 1.02 1.46 0.98 0.76 0.81 0.85 0.86 0.83 0.80 0.78 0.93 1.14 1.35 1.42 1.46 1.58 1.73 1.95 2.18 2.28 2.24 2.37 2.57 2.64 2.73 2.61 2.63 2.40 2.15 1.94 1.82 1.88 1.85 1.72 1.66 1.76 1.67 1.90 1.83 1.87 2.04 2.05
0.09 0.09 0.15 0.29 0.38 0.61 0.85 1.14 1.19 0.74 0.65 0.75 0.77 0.78 0.85 0.81 0.75 0.82 0.90 1.07 1.13 1.19 1.31 1.46 1.81 2.09 2.19 2.23 2.37 2.46 2.54 2.52 2.42 2.33 2.17 1.97 1.96 1.90 2.00 1.96 1.84 1.75 1.81 1.94 2.18 2.10 2.07 2.24 2.18
0.10 0.11 0.17 0.23 0.38 0.61 0.82 1.11 1.26 0.89 0.72 0.53 0.49 0.54 0.53 0.53 0.54 0.61 0.66 0.77 0.89 1.10 1.36 1.52 1.66 1.95 2.07 2.09 2.16 2.19 2.35 2.31 2.19 2.13 1.97 1.81 1.71 1.75 1.91 2.03 1.97 1.91 1.95 2.10 2.25 2.25 2.39 2.51 2.45
0.13 0.12 0.14 0.18 0.22 0.42 0.83 1.05 0.84 0.70 0.59 0.54 0.51 0.55 0.47 0.40 0.42 0.49 0.62 0.76 0.93 1.08 1.24 1.34 1.40 1.56 1.71 1.81 1.98 1.96 1.95 2.05 2.11 1.96 1.76 1.70 1.66 1.70 1.78 1.96 2.03 2.00 2.04 2.14 2.19 2.16 2.43 2.52 2.50
0.14 0.12 0.13 0.18 0.18 0.26 0.48 0.70 0.55 0.61 0.61 0.52 0.55 0.60 0.61 0.56 0.50 0.55 0.72 0.89 1.01 1.14 1.16 1.17 1.23 1.37 1.52 1.70 1.90 1.97 1.98 2.02 2.00 1.84 1.68 1.65 1.66 1.73 1.81 1.93 1.94 1.87 1.88 2.07 2.11 2.18 2.39 2.48 2.38

GEFSSGP_prec_meanprecacc_246.txt.gz
Total_Precipitation_Accumulation
0.07 0.14 0.36 0.59 1.03 1.79 1.65 1.05 0.54 0.34 0.32 0.39 0.46 0.49 0.55 0.58 0.80 1.36 1.17 0.86 0.56 0.60 0.67 0.78 0.94 0.86 0.82 0.90 0.92 0.93 0.98 0.97 0.93 0.91 0.94 0.98 1.00 0.97 0.99 0.98 0.90 0.89 0.89 0.79 0.71 0.64 0.57 0.53 0.52
0.11 0.24 0.46 0.66 1.37 1.85 1.37 1.17 0.49 0.30 0.24 0.33 0.41 0.46 0.52 0.51 0.39 0.59 0.92 0.82 0.55 0.54 0.52 0.47 0.68 0.70 0.73 0.85 0.91 1.03 1.03 0.97 0.89 0.90 0.90 0.92 1.04 1.03 0.94 0.86 0.81 0.83 0.77 0.70 0.61 0.54 0.46 0.44 0.42
0.14 0.30 0.46 0.65 1.00 1.11 0.76 0.60 0.31 0.27 0.27 0.30 0.38 0.41 0.46 0.61 0.49 0.63 0.74 0.58 0.50 0.47 0.49 0.55 0.65 0.64 0.73 0.82 0.90 0.97 0.87 0.81 0.83 0.86 0.88 0.96 0.97 0.92 0.86 0.80 0.78 0.77 0.69 0.61 0.52 0.48 0.44 0.43 0.45
0.14 0.26 0.35 0.48 0.50 0.54 0.46 0.33 0.23 0.21 0.23 0.30 0.34 0.38 0.52 0.54 0.43 0.61 0.66 0.60 0.44 0.40 0.46 0.51 0.58 0.63 0.68 0.69 0.74 0.84 0.86 0.80 0.81 0.80 0.84 0.86 0.87 0.90 0.80 0.72 0.70 0.70 0.66 0.58 0.55 0.48 0.45 0.46 0.51
0.14 0.27 0.38 0.38 0.32 0.40 0.39 0.30 0.24 0.19 0.18 0.30 0.41 0.57 0.72 0.62 0.46 0.64 0.67 0.65 0.50 0.43 0.49 0.49 0.61 0.67 0.66 0.64 0.66 0.70 0.76 0.79 0.81 0.78 0.78 0.79 0.78 0.79 0.72 0.65 0.61 0.63 0.58 0.53 0.53 0.49 0.50 0.54 0.57
0.14 0.27 0.27 0.24 0.25 0.31 0.30 0.21 0.19 0.19 0.24 0.29 0.43 0.71 0.95 0.86 0.62 0.64 0.71 0.62 0.60 0.61 0.63 0.61 0.70 0.71 0.70 0.66 0.67 0.64 0.64 0.67 0.65 0.64 0.67 0.67 0.63 0.65 0.69 0.69 0.59 0.55 0.51 0.49 0.50 0.49 0.53 0.59 0.64
0.12 0.19 0.17 0.14 0.18 0.25 0.25 0.18 0.17 0.15 0.20 0.32 0.41 0.76 1.10 1.23 0.91 0.75 0.81 0.87 0.95 0.88 0.76 0.74 0.82 0.83 0.76 0.84 0.78 0.70 0.63 0.62 0.62 0.60 0.63 0.62 0.57 0.56 0.61 0.72 0.66 0.54 0.54 0.55 0.55 0.55 0.57 0.61 0.69
0.05 0.08 0.13 0.13 0.10 0.19 0.21 0.19 0.16 0.16 0.19 0.28 0.39 0.65 1.08 1.06 0.79 0.82 1.13 1.26 1.46 1.36 1.14 1.01 0.96 0.87 0.81 0.80 0.80 0.76 0.70 0.65 0.64 0.61 0.56 0.61 0.60 0.57 0.64 0.70 0.71 0.63 0.64 0.75 0.73 0.71 0.70 0.68 0.67
0.04 0.05 0.10 0.09 0.07 0.11 0.13 0.15 0.15 0.14 0.17 0.35 0.49 0.63 0.86 0.79 0.73 0.83 1.44 1.64 1.72 1.64 1.51 1.27 1.05 0.96 0.94 0.81 0.75 0.85 0.83 0.79 0.78 0.77 0.73 0.86 0.97 0.84 0.90 0.85 0.93 0.90 0.89 1.00 1.05 1.07 1.02 0.92 0.82
0.03 0.03 0.05 0.04 0.04 0.06 0.10 0.14 0.15 0.16 0.31 0.66 0.90 0.89 0.86 0.82 0.96 1.19 1.61 1.65 1.80 1.88 1.64 1.49 1.28 1.06 0.93 0.81 0.93 1.18 0.99 1.01 1.09 1.15 1.15 1.37 1.57 1.54 1.02 1.06 1.33 1.41 1.47 1.53 1.59 1.65 1.41 1.19 1.13
0.02 0.03 0.02 0.03 0.02 0.04 0.07 0.13 0.15 0.18 0.53 0.97 1.28 1.10 0.98 1.06 1.19 1.48 1.90 2.13 2.09 2.18 1.93 1.74 1.48 1.21 1.05 1.10 1.00 1.15 1.31 1.41 1.44 1.43 1.45 1.62 1.51 1.28 1.13 1.26 1.54 1.78 1.87 1.86 2.10 2.10 1.76 1.80 2.04
0.02 0.02 0.01 0.01 0.02 0.03 0.06 0.10 0.15 0.25 0.50 0.69 0.87 1.03 1.13 1.30 1.58 1.84 2.01 2.25 2.25 2.31 2.18 2.16 1.75 1.58 1.63 1.44 1.17 1.09 1.12 1.25 1.44 1.67 1.63 1.74 1.96 1.84 1.75 1.83 1.86 1.99 2.22 2.61 2.52 2.63 2.47 2.43 2.34
0.01 0.02 0.02 0.01 0.02 0.04 0.05 0.08 0.18 0.33 0.43 0.53 0.85 1.19 1.44 1.48 1.81 2.13 2.25 2.53 2.37 2.32 2.34 2.34 2.13 1.96 2.04 1.82 1.60 1.35 1.46 1.48 1.55 1.67 1.82 1.78 2.06 2.25 2.21 2.17 2.12 2.00 2.11 2.32 2.53 2.55 2.90 3.02 2.63
0.01 0.01 0.01 0.02 0.03 0.05 0.08 0.14 0.24 0.38 0.54 0.72 0.95 1.22 1.52 1.79 2.00 2.12 2.51 2.71 2.71 2.61 2.67 2.47 2.36 2.35 2.35 2.28 2.21 2.09 1.83 1.90 1.81 1.76 1.77 1.83 2.08 2.38 2.50 2.36 2.32 2.16 2.15 2.30 2.49 2.64 3.14 3.13 2.93
0.01 0.02 0.03 0.04 0.06 0.08 0.12 0.29 0.44 0.56 0.63 0.78 0.99 1.13 1.47 1.98 2.25 2.28 2.56 2.69 2.63 2.97 3.02 3.01 2.96 3.07 2.99 2.83 2.69 2.48 2.29 2.14 2.10 2.16 2.17 2.06 2.12 2.38 2.42 2.25 2.15 2.18 2.34 2.53 2.54 2.67 2.96 2.72 2.71
0.02 0.09 0.12 0.12 0.10 0.11 0.18 0.50 0.60 0.67 0.68 0.87 1.06 1.23 1.54 1.83 2.18 2.33 2.61 2.79 2.83 3.18 3.35 3.53 3.51 3.51 3.35 3.34 3.26 3.00 2.77 2.60 2.42 2.36 2.41 2.25 2.20 2.26 2.46 2.27 2.11 2.41 2.46 2.58 2.85 2.97 2.97 2.91 2.91
0.06 0.07 0.09 0.12 0.10 0.09 0.16 0.42 0.53 0.70 0.91 1.08 1.26 1.41 1.45 1.74 2.06 2.43 2.72 3.06 3.32 3.63 3.89 4.08 4.07 3.91 3.65 3.68 3.65 3.49 3.32 2.99 2.63 2.49 2.40 2.27 2.23 2.33 2.59 2.57 2.66 2.71 2.77 2.81 2.68 3.06 3.09 2.95 2.98
0.05 0.07 0.08 0.12 0.11 0.11 0.22 0.47 0.58 0.76 1.00 1.04 1.30 1.47 1.55 1.65 2.10 2.55 2.77 3.18 3.65 4.13 4.53 4.38 4.27 4.44 4.31 4.15 4.00 3.72 3.27 2.85 2.71 2.67 2.48 2.34 2.37 2.45 2.83 2.69 2.70 2.75 2.90 2.96 2.93 3.01 3.02 2.74 2.73
0.05 0.07 0.10 0.13 0.12 0.15 0.28 0.55 0.80 0.90 1.17 1.13 1.15 1.31 1.46 1.61 1.91 2.33 2.64 3.20 3.81 4.18 4.57 4.72 4.73 4.61 4.41 4.01 3.68 3.43 3.20 3.02 2.77 2.61 2.55 2.43 2.30 2.45 2.85 2.72 2.93 2.88 2.87 2.88 2.91 2.98 2.88 2.51 2.68
0.06 0.08 0.10 0.15 0.16 0.21 0.39 0.61 0.90 0.91 0.99 1.04 0.96 0.99 1.18 1.55 1.81 2.34 2.64 2.85 3.32 3.83 4.29 4.59 4.73 4.62 4.22 3.82 3.60 3.46 3.39 3.02 2.73 2.69 2.78 2.62 2.61 2.65 2.68 2.86 2.83 2.88 2.97 2.90 2.86 2.94 2.76 2.35 2.53
0.07 0.08 0.10 0.11 0.14 0.28 0.42 0.83 1.09 0.98 0.93 0.95 0.94 0.99 1.17 1.63 2.08 2.34 2.53 2.70 2.98 3.37 3.68 3.80 3.95 3.92 3.76 3.78 3.77 3.69 3.64 3.18 3.06 3.05 3.03 2.85 2.83 2.84 2.84 2.83 2.76 2.74 2.57 2.60 2.64 2.66 2.68 2.55 2.43
0.09 0.07 0.06 0.08 0.15 0.36 0.44 0.94 1.35 1.18 1.03 1.08 1.13 1.08 1.35 1.68 1.72 1.87 2.18 2.50 2.68 2.91 3.26 3.49 3.55 3.50 3.41 3.50 3.54 3.41 3.21 3.04 3.13 3.39 3.34 3.07 2.84 2.67 2.47 2.42 2.52 2.51 2.35 2.37 2.08 2.20 2.38 2.37 2.21
0.08 0.07 0.07 0.10 0.17 0.34 0.45 0.72 1.25 1.27 1.26 1.15 1.17 1.28 1.49 1.52 1.46 1.57 1.77 2.10 2.21 2.52 2.81 3.06 3.32 3.41 3.36 3.40 3.33 3.34 3.21 3.20 3.23 3.18 3.16 2.93 2.72 2.40 2.08 2.06 2.18 2.17 2.10 2.02 1.96 2.13 2.02 1.94 1.94
0.06 0.08 0.13 0.20 0.32 0.67 0.55 0.57 1.03 1.20 1.04 0.98 1.08 1.11 1.30 1.31 1.31 1.50 1.65 1.88 2.01 2.16 2.28 2.41 2.63 2.91 3.08 3.14 3.12 3.14 3.08 3.06 2.98 2.87 2.73 2.52 2.35 2.08 1.81 1.70 1.86 1.99 2.01 1.97 1.95 2.03 1.93 1.92 2.04
0.06 0.11 0.41 0.76 0.99 1.05 0.57 0.62 1.07 0.94 0.74 0.76 0.95 1.00 1.06 1.04 1.02 1.24 1.37 1.48 1.62 1.75 1.85 1.97 2.17 2.51 2.68 2.68 2.67 2.78 2.82 2.84 2.75 2.71 2.55 2.33 2.10 1.81 1.73 1.74 1.83 1.89 1.94 1.83 1.89 1.95 1.98 2.10 2.15
0.09 0.11 0.36 0.65 0.78 0.84 0.69 1.03 1.47 0.98 0.76 0.81 0.86 0.86 0.85 0.81 0.79 0.94 1.15 1.36 1.42 1.46 1.58 1.73 1.95 2.18 2.29 2.24 2.38 2.58 2.65 2.74 2.63 2.65 2.42 2.16 1.95 1.84 1.89 1.87 1.76 1.71 1.79 1.70 1.94 1.87 1.92 2.08 2.10
0.10 0.09 0.15 0.29 0.39 0.63 0.88 1.16 1.20 0.74 0.65 0.75 0.77 0.79 0.90 0.84 0.76 0.82 0.91 1.08 1.13 1.19 1.32 1.46 1.82 2.10 2.20 2.24 2.38 2.48 2.55 2.54 2.44 2.35 2.18 1.98 1.97 1.91 2.01 1.98 1.88 1.78 1.84 1.96 2.21 2.13 2.10 2.28 2.22
0.10 0.12 0.17 0.24 0.40 0.63 0.86 1.15 1.27 0.90 0.72 0.54 0.50 0.54 0.55 0.55 0.55 0.62 0.67 0.77 0.90 1.12 1.37 1.53 1.66 1.96 2.08 2.09 2.17 2.20 2.37 2.33 2.22 2.15 1.98 1.82 1.72 1.76 1.92 2.05 1.99 1.93 1.96 2.12 2.28 2.27 2.42 2.55 2.48
0.13 0.12 0.14 0.18 0.25 0.44 0.87 1.08 0.85 0.71 0.59 0.55 0.52 0.56 0.48 0.42 0.45 0.51 0.64 0.78 0.95 1.11 1.29 1.36 1.41 1.57 1.71 1.81 1.99 1.97 1.96 2.06 2.12 1.99 1.77 1.70 1.67 1.71 1.78 1.97 2.04 2.01 2.04 2.15 2.20 2.18 2.46 2.56 2.54
0.14 0.12 0.14 0.18 0.19 0.28 0.50 0.71 0.56 0.62 0.61 0.53 0.56 0.62 0.61 0.57 0.51 0.55 0.73 0.89 1.02 1.17 1.20 1.19 1.24 1.38 1.53 1.70 1.90 1.98 1.98 2.02 2.01 1.88 1.70 1.66 1.67 1.74 1.82 1.94 1.95 1.87 1.88 2.07 2.12 2.19 2.42 2.51 2.41

GEFSSGP_prec_meanprecacc_252.txt.gz
Total_Precipitation_Accumulation
0.08 0.15 0.37 0.60 1.04 1.80 1.66 1.08 0.56 0.34 0.33 0.41 0.49 0.51 0.56 0.58 0.81 1.37 1.18 0.89 0.59 0.65 0.75 0.92 1.08 0.97 0.93 0.99 1.00 1.01 1.08 1.07 1.03 1.01 1.03 1.03 1.06 1.03 1.06 1.05 0.99 1.00 1.00 0.89 0.81 0.72 0.66 0.62 0.58
0.11 0.24 0.46 0.66 1.37 1.85 1.39 1.19 0.50 0.30 0.25 0.35 0.42 0.47 0.53 0.51 0.39 0.60 0.95 0.86 0.58 0.58 0.59 0.61 0.80 0.81 0.83 0.94 0.99 1.13 1.14 1.07 0.98 0.98 0.96 0.97 1.09 1.09 1.02 0.94 0.89 0.92 0.85 0.77 0.67 0.59 0.52 0.49 0.47
0.15 0.31 0.46 0.66 1.00 1.11 0.77 0.62 0.32 0.28 0.28 0.33 0.40 0.42 0.47 0.63 0.50 0.65 0.77 0.61 0.53 0.50 0.55 0.64 0.78 0.78 0.85 0.91 0.99 1.05 0.96 0.90 0.94 0.96 0.97 1.04 1.05 0.99 0.93 0.88 0.85 0.84 0.74 0.65 0.57 0.53 0.49 0.47 0.47
0.15 0.26 0.36 0.49 0.50 0.54 0.46 0.33 0.23 0.22 0.24 0.32 0.36 0.39 0.54 0.59 0.46 0.63 0.68 0.61 0.46 0.44 0.51 0.59 0.71 0.76 0.78 0.77 0.81 0.91 0.92 0.87 0.90 0.89 0.92 0.92 0.94 0.96 0.87 0.79 0.77 0.75 0.71 0.63 0.58 0.52 0.49 0.50 0.54
0.14 0.28 0.38 0.38 0.32 0.41 0.39 0.30 0.24 0.19 0.18 0.33 0.44 0.61 0.77 0.68 0.49 0.66 0.69 0.66 0.52 0.48 0.53 0.55 0.73 0.79 0.75 0.71 0.73 0.76 0.83 0.85 0.85 0.83 0.82 0.83 0.84 0.86 0.79 0.72 0.68 0.68 0.62 0.56 0.56 0.53 0.53 0.57 0.60
0.15 0.28 0.27 0.25 0.25 0.32 0.30 0.22 0.19 0.20 0.25 0.36 0.53 0.79 1.02 0.93 0.67 0.68 0.73 0.64 0.64 0.67 0.68 0.67 0.82 0.86 0.82 0.75 0.74 0.70 0.70 0.71 0.69 0.68 0.70 0.71 0.67 0.71 0.75 0.75 0.65 0.60 0.54 0.51 0.52 0.52 0.55 0.62 0.66
0.13 0.19 0.17 0.15 0.18 0.26 0.25 0.19 0.17 0.15 0.23 0.40 0.49 0.83 1.17 1.32 0.97 0.78 0.84 0.91 1.00 0.93 0.81 0.79 0.88 0.93 0.86 0.91 0.84 0.75 0.68 0.67 0.66 0.64 0.67 0.65 0.60 0.60 0.65 0.76 0.72 0.58 0.56 0.57 0.58 0.58 0.60 0.64 0.71
0.05 0.09 0.13 0.13 0.11 0.19 0.21 0.19 0.16 0.16 0.21 0.34 0.45 0.69 1.13 1.13 0.86 0.87 1.18 1.30 1.50 1.40 1.17 1.05 0.99 0.91 0.86 0.85 0.86 0.82 0.75 0.70 0.69 0.66 0.62 0.67 0.65 0.61 0.69 0.77 0.78 0.71 0.70 0.79 0.77 0.75 0.73 0.70 0.70
0.04 0.06 0.10 0.09 0.08 0.11 0.13 0.15 0.15 0.14 0.17 0.35 0.51 0.65 0.88 0.82 0.78 0.88 1.48 1.68 1.75 1.66 1.53 1.29 1.07 0.98 0.96 0.83 0.78 0.89 0.88 0.85 0.84 0.82 0.78 0.90 1.01 0.87 0.93 0.91 1.04 1.04 1.00 1.10 1.13 1.13 1.07 0.96 0.86
0.04 0.04 0.05 0.04 0.04 0.06 0.10 0.15 0.15 0.17 0.31 0.66 0.90 0.90 0.88 0.85 0.99 1.21 1.63 1.67 1.83 1.90 1.66 1.50 1.29 1.07 0.94 0.82 0.94 1.19 1.01 1.02 1.10 1.17 1.17 1.39 1.59 1.55 1.04 1.12 1.43 1.55 1.59 1.64 1.69 1.74 1.49 1.24 1.16
0.02 0.03 0.02 0.03 0.02 0.04 0.07 0.13 0.15 0.18 0.54 0.97 1.28 1.11 0.99 1.08 1.21 1.50 1.92 2.15 2.11 2.20 1.96 1.77 1.51 1.23 1.06 1.11 1.00 1.15 1.33 1.42 1.45 1.44 1.47 1.64 1.53 1.30 1.16 1.31 1.62 1.87 1.94 1.92 2.15 2.16 1.81 1.85 2.08
0.02 0.02 0.02 0.02 0.02 0.03 0.06 0.10 0.15 0.25 0.50 0.69 0.87 1.03 1.14 1.31 1.59 1.86 2.02 2.27 2.27 2.32 2.20 2.18 1.77 1.60 1.64 1.44 1.17 1.09 1.13 1.26 1.46 1.69 1.66 1.77 1.98 1.86 1.77 1.87 1.92 2.05 2.27 2.65 2.55 2.66 2.51 2.47 2.38
0.01 0.02 0.02 0.01 0.02 0.04 0.06 0.08 0.18 0.33 0.43 0.54 0.85 1.20 1.45 1.49 1.82 2.14 2.26 2.54 2.38 2.33 2.35 2.35 2.14 1.98 2.06 1.83 1.61 1.35 1.46 1.49 1.56 1.69 1.84 1.80 2.08 2.27 2.24 2.20 2.16 2.05 2.15 2.35 2.56 2.58 2.92 3.05 2.67
0.01 0.01 0.01 0.02 0.03 0.05 0.08 0.14 0.24 0.38 0.54 0.72 0.95 1.22 1.53 1.79 2.00 2.13 2.52 2.72 2.72 2.62 2.68 2.47 2.37 2.36 2.37 2.29 2.23 2.10 1.83 1.91 1.82 1.77 1.79 1.85 2.11 2.41 2.54 2.40 2.36 2.21 2.18 2.34 2.53 2.67 3.17 3.17 2.97
0.01 0.02 0.04 0.05 0.06 0.08 0.12 0.30 0.45 0.56 0.63 0.79 0.99 1.14 1.47 1.99 2.26 2.28 2.57 2.70 2.64 2.98 3.03 3.02 2.97 3.09 3.01 2.84 2.72 2.50 2.30 2.15 2.11 2.17 2.19 2.09 2.17 2.44 2.47 2.29 2.19 2.24 2.39 2.58 2.58 2.72 3.00 2.75 2.75
0.03 0.09 0.12 0.12 0.10 0.11 0.18 0.50 0.61 0.68 0.68 0.87 1.07 1.24 1.54 1.84 2.19 2.34 2.62 2.80 2.85 3.20 3.37 3.55 3.53 3.54 3.37 3.35 3.28 3.03 2.79 2.61 2.44 2.38 2.43 2.28 2.26 2.34 2.53 2.32 2.15 2.47 2.52 2.64 2.91 3.03 3.03 2.96 2.96
0.06 0.07 0.09 0.12 0.10 0.09 0.16 0.42 0.53 0.70 0.92 1.08 1.26 1.41 1.46 1.75 2.07 2.43 2.73 3.07 3.33 3.64 3.90 4.10 4.09 3.94 3.68 3.71 3.67 3.52 3.37 3.03 2.67 2.51 2.43 2.29 2.27 2.39 2.68 2.63 2.71 2.76 2.83 2.87 2.74 3.13 3.15 3.01 3.04
0.05 0.07 0.08 0.12 0.11 0.11 0.22 0.47 0.59 0.76 1.00 1.05 1.31 1.47 1.55 1.66 2.11 2.56 2.77 3.18 3.66 4.14 4.54 4.39 4.29 4.47 4.35 4.17 4.02 3.75 3.31 2.89 2.75 2.71 2.51 2.37 2.39 2.49 2.90 2.75 2.76 2.81 2.94 3.00 2.97 3.07 3.08 2.81 2.80
0.05 0.07 0.10 0.13 0.12 0.15 0.28 0.55 0.80 0.90 1.17 1.13 1.16 1.31 1.47 1.61 1.91 2.34 2.64 3.20 3.81 4.19 4.57 4.73 4.74 4.63 4.43 4.04 3.71 3.46 3.24 3.05 2.80 2.63 2.57 2.45 2.33 2.48 2.89 2.76 2.99 2.94 2.90 2.91 2.96 3.06 2.96 2.60 2.76
0.06 0.08 0.10 0.15 0.16 0.21 0.39 0.62 0.90 0.91 0.99 1.04 0.96 1.00 1.19 1.56 1.81 2.34 2.64 2.85 3.32 3.84 4.29 4.59 4.74 4.62 4.23 3.83 3.62 3.48 3.42 3.04 2.74 2.71 2.79 2.65 2.65 2.69 2.72 2.89 2.86 2.92 3.01 2.93 2.90 2.99 2.80 2.42 2.61
0.08 0.08 0.10 0.11 0.14 0.28 0.43 0.83 1.09 0.98 0.93 0.95 0.94 0.99 1.17 1.64 2.08 2.34 2.53 2.70 2.98 3.37 3.68 3.80 3.95 3.92 3.76 3.78 3.78 3.70 3.65 3.19 3.07 3.06 3.05 2.87 2.87 2.89 2.89 2.86 2.79 2.78 2.61 2.64 2.67 2.69 2.70 2.59 2.50
0.09 0.08 0.07 0.08 0.15 0.36 0.44 0.94 1.35 1.18 1.03 1.08 1.13 1.08 1.35 1.68 1.72 1.87 2.18 2.51 2.68 2.91 3.26 3.49 3.55 3.50 3.41 3.51 3.56 3.42 3.21 3.04 3.14 3.41 3.36 3.10 2.88 2.73 2.54 2.48 2.60 2.60 2.43 2.43 2.12 2.25 2.44 2.44 2.27
0.08 0.08 0.08 0.11 0.17 0.35 0.46 0.72 1.25 1.28 1.26 1.15 1.17 1.28 1.49 1.52 1.46 1.57 1.78 2.10 2.21 2.52 2.81 3.06 3.32 3.41 3.36 3.41 3.34 3.35 3.23 3.21 3.24 3.19 3.18 2.96 2.77 2.45 2.13 2.14 2.28 2.28 2.19 2.10 2.01 2.17 2.07 2.00 2.00
0.06 0.08 0.14 0.21 0.33 0.67 0.55 0.57 1.03 1.20 1.04 0.98 1.08 1.11 1.30 1.31 1.31 1.50 1.65 1.88 2.01 2.16 2.28 2.41 2.63 2.92 3.09 3.14 3.12 3.15 3.09 3.07 2.98 2.88 2.74 2.55 2.39 2.12 1.85 1.76 1.94 2.07 2.06 2.01 1.99 2.07 1.97 1.98 2.10
0.07 0.11 0.42 0.77 1.00 1.05 0.58 0.62 1.07 0.94 0.74 0.76 0.95 1.00 1.06 1.04 1.02 1.24 1.37 1.49 1.62 1.75 1.85 1.97 2.17 2.51 2.68 2.68 2.67 2.78 2.83 2.85 2.76 2.71 2.56 2.36 2.12 1.82 1.76 1.78 1.87 1.92 1.96 1.85 1.92 1.99 2.01 2.13 2.19
0.09 0.11 0.37 0.66 0.79 0.85 0.70 1.03 1.47 0.98 0.76 0.81 0.86 0.86 0.85 0.81 0.79 0.94 1.15 1.37 1.43 1.46 1.59 1.73 1.95 2.19 2.30 2.25 2.38 2.59 2.66 2.76 2.64 2.67 2.43 2.18 1.96 1.85 1.90 1.89 1.78 1.72 1.81 1.72 1.97 1.91 1.95 2.12 2.15
0.10 0.10 0.16 0.30 0.40 0.63 0.88 1.16 1.20 0.75 0.66 0.75 0.77 0.79 0.90 0.84 0.76 0.83 0.92 1.09 1.14 1.20 1.32 1.47 1.82 2.10 2.21 2.24 2.38 2.49 2.56 2.55 2.46 2.37 2.21 1.99 1.98 1.92 2.02 1.99 1.89 1.79 1.85 1.97 2.22 2.16 2.13 2.32 2.26
0.11 0.12 0.17 0.24 0.41 0.64 0.86 1.15 1.28 0.90 0.73 0.55 0.50 0.55 0.56 0.55 0.56 0.64 0.69 0.80 0.92 1.12 1.38 1.53 1.66 1.96 2.08 2.09 2.18 2.21 2.38 2.34 2.23 2.16 2.00 1.84 1.74 1.78 1.94 2.07 2.01 1.94 1.97 2.12 2.28 2.29 2.45 2.57 2.51
0.13 0.12 0.15 0.19 0.25 0.45 0.87 1.08 0.86 0.71 0.60 0.55 0.53 0.57 0.49 0.44 0.46 0.52 0.65 0.80 0.97 1.12 1.29 1.37 1.41 1.57 1.71 1.81 1.99 1.98 1.97 2.07 2.14 2.01 1.79 1.71 1.68 1.72 1.80 2.00 2.07 2.02 2.06 2.16 2.21 2.19 2.48 2.58 2.56
0.15 0.12 0.14 0.18 0.19 0.28 0.50 0.71 0.56 0.62 0.62 0.53 0.56 0.62 0.62 0.58 0.52 0.56 0.74 0.90 1.03 1.18 1.21 1.20 1.25 1.38 1.53 1.71 1.90 1.98 1.99 2.03 2.03 1.90 1.72 1.66 1.67 1.75 1.83 1.96 1.97 1.89 1.90 2.08 2.12 2.19 2.44 2.55 2.45

GEFSSGP_prec_meanprecacc_258.txt.gz
Total_Precipitation_Accumulation
0.08 0.15 0.37 0.60 1.04 1.80 1.67 1.09 0.57 0.35 0.35 0.46 0.52 0.51 0.56 0.59 0.82 1.39 1.20 0.92 0.65 0.74 0.85 1.01 1.16 1.10 1.09 1.14 1.16 1.17 1.22 1.18 1.11 1.07 1.08 1.11 1.21 1.27 1.35 1.32 1.23 1.20 1.15 1.03 0.95 0.85 0.76 0.71 0.65
0.11 0.24 0.46 0.67 1.37 1.85 1.39 1.20 0.51 0.31 0.26 0.38 0.44 0.48 0.55 0.52 0.40 0.61 0.97 0.90 0.66 0.71 0.74 0.71 0.90 0.97 0.93 1.02 1.08 1.23 1.25 1.17 1.08 1.05 1.03 1.05 1.20 1.23 1.17 1.09 1.05 1.07 0.99 0.90 0.79 0.70 0.62 0.57 0.52
0.15 0.31 0.46 0.66 1.00 1.11 0.78 0.62 0.33 0.30 0.29 0.35 0.42 0.43 0.49 0.64 0.51 0.66 0.79 0.66 0.66 0.72 0.78 0.85 0.94 0.96 0.97 1.00 1.07 1.15 1.09 1.04 1.07 1.07 1.05 1.10 1.12 1.07 1.02 0.98 0.96 0.94 0.84 0.76 0.65 0.60 0.56 0.53 0.51
0.15 0.26 0.36 0.49 0.50 0.54 0.46 0.33 0.24 0.24 0.26 0.34 0.37 0.40 0.56 0.62 0.48 0.65 0.70 0.68 0.61 0.68 0.79 0.88 0.93 0.88 0.88 0.86 0.89 1.01 1.05 1.01 1.04 1.02 1.03 1.01 1.02 1.05 0.95 0.86 0.84 0.82 0.76 0.68 0.63 0.57 0.53 0.54 0.57
0.14 0.28 0.38 0.38 0.33 0.41 0.39 0.30 0.24 0.20 0.21 0.35 0.46 0.62 0.79 0.72 0.52 0.69 0.72 0.73 0.64 0.64 0.79 0.82 0.89 0.89 0.83 0.78 0.79 0.84 0.94 0.97 0.97 0.93 0.93 0.93 0.92 0.93 0.85 0.77 0.74 0.73 0.66 0.60 0.61 0.56 0.56 0.60 0.63
0.15 0.28 0.27 0.25 0.26 0.32 0.30 0.22 0.20 0.22 0.29 0.37 0.55 0.81 1.06 0.98 0.70 0.70 0.78 0.72 0.74 0.79 0.87 0.89 0.98 0.95 0.89 0.81 0.80 0.75 0.76 0.78 0.77 0.77 0.79 0.79 0.74 0.77 0.81 0.80 0.70 0.64 0.58 0.55 0.55 0.55 0.58 0.64 0.69
0.13 0.19 0.17 0.15 0.19 0.26 0.25 0.19 0.18 0.18 0.25 0.42 0.53 0.86 1.21 1.38 1.02 0.82 0.90 1.00 1.10 1.04 0.93 0.92 1.00 1.00 0.92 0.97 0.88 0.79 0.73 0.72 0.71 0.69 0.72 0.71 0.66 0.67 0.72 0.82 0.76 0.62 0.60 0.60 0.61 0.61 0.63 0.66 0.75
0.05 0.09 0.13 0.13 0.11 0.20 0.21 0.19 0.17 0.18 0.23 0.35 0.50 0.73 1.19 1.19 0.92 0.95 1.27 1.39 1.58 1.47 1.24 1.11 1.05 0.96 0.90 0.90 0.89 0.86 0.80 0.74 0.72 0.69 0.64 0.70 0.70 0.67 0.76 0.83 0.84 0.77 0.76 0.84 0.80 0.78 0.77 0.73 0.73
0.04 0.06 0.10 0.09 0.08 0.11 0.13 0.15 0.16 0.15 0.18 0.37 0.53 0.68 0.93 0.88 0.85 0.96 1.57 1.75 1.81 1.72 1.58 1.33 1.10 1.00 0.98 0.86 0.81 0.92 0.92 0.88 0.87 0.85 0.81 0.93 1.05 0.91 0.97 0.94 1.09 1.11 1.06 1.15 1.18 1.18 1.12 1.00 0.88
0.04 0.04 0.05 0.04 0.04 0.06 0.10 0.15 0.15 0.17 0.32 0.67 0.92 0.92 0.91 0.89 1.05 1.26 1.68 1.71 1.88 1.95 1.70 1.53 1.31 1.08 0.95 0.83 0.97 1.22 1.04 1.05 1.13 1.19 1.19 1.41 1.62 1.58 1.05 1.13 1.45 1.60 1.65 1.69 1.74 1.79 1.53 1.27 1.19
0.02 0.03 0.02 0.03 0.02 0.04 0.07 0.13 0.15 0.19 0.54 0.97 1.30 1.12 1.01 1.11 1.26 1.54 1.95 2.18 2.15 2.24 1.98 1.79 1.52 1.23 1.06 1.12 1.02 1.18 1.35 1.45 1.46 1.45 1.48 1.66 1.54 1.31 1.18 1.34 1.64 1.91 1.98 1.96 2.18 2.19 1.84 1.89 2.13
0.02 0.02 0.02 0.02 0.02 0.03 0.06 0.10 0.15 0.25 0.50 0.69 0.87 1.04 1.15 1.34 1.62 1.89 2.04 2.29 2.29 2.34 2.22 2.19 1.78 1.61 1.65 1.45 1.19 1.11 1.15 1.28 1.47 1.71 1.67 1.78 1.99 1.87 1.81 1.93 1.97 2.11 2.32 2.69 2.58 2.71 2.55 2.52 2.44
0.01 0.02 0.02 0.01 0.02 0.04 0.06 0.08 0.18 0.33 0.44 0.54 0.85 1.20 1.46 1.50 1.83 2.16 2.28 2.55 2.40 2.35 2.37 2.36 2.16 1.99 2.07 1.85 1.63 1.37 1.49 1.51 1.58 1.70 1.86 1.82 2.10 2.30 2.28 2.26 2.24 2.12 2.19 2.41 2.61 2.62 2.97 3.11 2.73
0.01 0.01 0.01 0.02 0.03 0.05 0.09 0.14 0.24 0.38 0.54 0.73 0.95 1.22 1.53 1.80 2.01 2.14 2.54 2.73 2.75 2.64 2.69 2.49 2.39 2.38 2.39 2.32 2.25 2.11 1.85 1.93 1.85 1.80 1.82 1.88 2.15 2.46 2.58 2.44 2.42 2.28 2.23 2.39 2.57 2.73 3.23 3.22 3.03
0.01 0.02 0.04 0.05 0.06 0.08 0.12 0.30 0.45 0.56 0.63 0.79 1.00 1.14 1.47 1.99 2.26 2.29 2.58 2.71 2.65 3.00 3.04 3.04 2.99 3.11 3.04 2.88 2.76 2.53 2.33 2.18 2.14 2.21 2.22 2.13 2.20 2.49 2.53 2.34 2.24 2.31 2.45 2.64 2.64 2.77 3.06 2.80 2.80
0.03 0.09 0.12 0.12 0.10 0.11 0.18 0.50 0.61 0.68 0.68 0.87 1.07 1.24 1.54 1.84 2.19 2.34 2.62 2.81 2.86 3.21 3.38 3.57 3.55 3.57 3.40 3.40 3.33 3.08 2.84 2.67 2.49 2.43 2.47 2.33 2.31 2.39 2.59 2.37 2.21 2.54 2.58 2.71 2.99 3.11 3.09 3.01 3.01
0.06 0.07 0.09 0.12 0.10 0.09 0.16 0.42 0.53 0.70 0.92 1.08 1.26 1.43 1.47 1.75 2.08 2.44 2.73 3.07 3.33 3.64 3.91 4.11 4.11 3.97 3.72 3.74 3.71 3.57 3.42 3.10 2.74 2.57 2.48 2.35 2.32 2.44 2.73 2.68 2.75 2.81 2.90 2.94 2.81 3.19 3.22 3.08 3.11
0.05 0.07 0.08 0.12 0.11 0.11 0.22 0.47 0.59 0.76 1.00 1.05 1.31 1.49 1.57 1.66 2.11 2.56 2.77 3.19 3.66 4.14 4.54 4.39 4.30 4.49 4.38 4.21 4.06 3.79 3.35 2.94 2.79 2.75 2.57 2.41 2.44 2.54 2.95 2.80 2.79 2.84 2.99 3.06 3.05 3.16 3.16 2.89 2.89
0.05 0.07 0.10 0.13 0.12 0.15 0.28 0.55 0.80 0.90 1.17 1.13 1.16 1.32 1.48 1.61 1.91 2.34 2.65 3.20 3.81 4.19 4.58 4.74 4.75 4.66 4.47 4.08 3.76 3.51 3.28 3.08 2.84 2.66 2.58 2.48 2.37 2.54 2.94 2.80 3.03 2.98 2.95 2.97 3.03 3.14 3.03 2.68 2.85
0.06 0.08 0.10 0.15 0.16 0.21 0.39 0.62 0.90 0.91 0.99 1.04 0.96 1.00 1.20 1.56 1.81 2.34 2.64 2.86 3.33 3.84 4.30 4.59 4.74 4.64 4.26 3.87 3.66 3.53 3.47 3.07 2.77 2.73 2.83 2.69 2.70 2.74 2.76 2.92 2.90 2.96 3.05 2.98 2.96 3.06 2.87 2.49 2.69
0.08 0.08 0.10 0.11 0.14 0.28 0.43 0.83 1.09 0.98 0.93 0.95 0.94 0.99 1.17 1.64 2.08 2.34 2.54 2.70 2.98 3.37 3.68 3.80 3.96 3.93 3.77 3.80 3.80 3.73 3.68 3.23 3.12 3.12 3.10 2.92 2.92 2.94 2.93 2.91 2.84 2.83 2.65 2.68 2.72 2.75 2.77 2.66 2.57
0.10 0.08 0.07 0.08 0.15 0.36 0.44 0.94 1.35 1.18 1.03 1.08 1.13 1.08 1.35 1.68 1.72 1.87 2.19 2.51 2.69 2.91 3.26 3.49 3.56 3.51 3.42 3.52 3.57 3.44 3.23 3.07 3.18 3.47 3.43 3.16 2.94 2.78 2.59 2.52 2.67 2.69 2.48 2.47 2.17 2.30 2.50 2.51 2.36
0.08 0.08 0.08 0.11 0.17 0.35 0.46 0.72 1.25 1.28 1.26 1.15 1.17 1.28 1.49 1.52 1.46 1.57 1.78 2.10 2.21 2.52 2.81 3.06 3.33 3.42 3.37 3.42 3.35 3.37 3.24 3.24 3.27 3.24 3.24 3.04 2.84 2.51 2.19 2.20 2.36 2.36 2.27 2.16 2.06 2.21 2.12 2.05 2.09
0.07 0.08 0.14 0.21 0.33 0.67 0.55 0.57 1.03 1.20 1.04 0.98 1.08 1.11 1.30 1.31 1.31 1.50 1.65 1.89 2.01 2.16 2.28 2.41 2.64 2.92 3.09 3.15 3.13 3.15 3.10 3.09 3.01 2.91 2.78 2.58 2.43 2.17 1.91 1.83 2.00 2.11 2.11 2.06 2.03 2.11 2.02 2.03 2.16
0.07 0.11 0.42 0.77 1.00 1.05 0.58 0.62 1.07 0.94 0.75 0.76 0.95 1.00 1.06 1.04 1.02 1.24 1.37 1.49 1.62 1.75 1.85 1.97 2.17 2.51 2.68 2.68 2.67 2.79 2.84 2.86 2.77 2.73 2.58 2.37 2.14 1.86 1.79 1.82 1.92 1.97 2.01 1.89 1.95 2.02 2.05 2.18 2.24
0.09 0.11 0.37 0.66 0.80 0.86 0.70 1.03 1.47 0.98 0.76 0.81 0.86 0.86 0.85 0.81 0.79 0.94 1.15 1.37 1.43 1.46 1.59 1.73 1.95 2.19 2.30 2.25 2.38 2.59 2.67 2.77 2.65 2.67 2.44 2.19 1.98 1.87 1.92 1.91 1.80 1.74 1.85 1.75 1.99 1.93 1.97 2.15 2.19
0.10 0.10 0.16 0.31 0.40 0.64 0.89 1.16 1.20 0.75 0.66 0.75 0.77 0.79 0.90 0.84 0.76 0.83 0.92 1.10 1.15 1.20 1.32 1.47 1.82 2.10 2.21 2.24 2.39 2.49 2.57 2.56 2.46 2.38 2.21 2.01 2.00 1.94 2.04 2.01 1.90 1.80 1.87 1.99 2.24 2.18 2.15 2.34 2.29
0.11 0.12 0.17 0.25 0.41 0.64 0.86 1.15 1.28 0.90 0.73 0.55 0.50 0.55 0.56 0.55 0.56 0.64 0.70 0.80 0.92 1.13 1.38 1.53 1.67 1.96 2.08 2.10 2.18 2.22 2.39 2.34 2.24 2.17 2.00 1.85 1.76 1.79 1.95 2.09 2.02 1.95 1.98 2.14 2.31 2.31 2.47 2.60 2.54
0.13 0.12 0.15 0.19 0.25 0.45 0.87 1.08 0.86 0.72 0.60 0.55 0.53 0.57 0.49 0.44 0.46 0.52 0.66 0.80 0.97 1.12 1.30 1.37 1.41 1.58 1.71 1.82 2.00 1.98 1.97 2.07 2.14 2.01 1.80 1.72 1.71 1.74 1.81 2.01 2.08 2.04 2.07 2.17 2.22 2.20 2.50 2.61 2.58
0.15 0.13 0.14 0.18 0.19 0.28 0.50 0.71 0.56 0.62 0.62 0.54 0.56 0.62 0.62 0.58 0.53 0.57 0.74 0.91 1.03 1.18 1.22 1.20 1.25 1.39 1.53 1.71 1.91 1.98 1.99 2.03 2.03 1.91 1.73 1.67 1.69 1.77 1.84 1.97 1.99 1.91 1.91 2.09 2.13 2.20 2.45 2.58 2.48

GEFSSGP_prec_meanprecacc_264.txt.gz
Total_Precipitation_Accumulation
0.08 0.15 0.37 0.61 1.07 1.82 1.67 1.09 0.59 0.36 0.36 0.48 0.53 0.51 0.57 0.62 0.88 1.45 1.26 0.96 0.69 0.78 0.90 1.05 1.22 1.20 1.20 1.25 1.22 1.24 1.30 1.27 1.23 1.23 1.30 1.36 1.44 1.47 1.58 1.59 1.43 1.35 1.31 1.18 1.09 0.95 0.81 0.75 0.68
0.12 0.25 0.47 0.68 1.40 1.86 1.40 1.20 0.52 0.32 0.26 0.38 0.45 0.48 0.57 0.53 0.41 0.64 1.04 0.95 0.70 0.74 0.78 0.75 0.95 1.05 1.05 1.16 1.20 1.32 1.33 1.25 1.17 1.16 1.17 1.24 1.44 1.48 1.44 1.32 1.22 1.23 1.16 1.06 0.92 0.78 0.67 0.61 0.55
0.15 0.31 0.47 0.68 1.01 1.12 0.79 0.62 0.33 0.31 0.29 0.36 0.43 0.44 0.49 0.65 0.52 0.70 0.85 0.75 0.77 0.80 0.87 0.92 1.01 1.04 1.08 1.15 1.24 1.27 1.17 1.12 1.15 1.15 1.14 1.21 1.27 1.24 1.18 1.14 1.10 1.07 0.99 0.90 0.76 0.67 0.61 0.57 0.54
0.15 0.27 0.37 0.49 0.50 0.54 0.46 0.34 0.24 0.25 0.26 0.36 0.39 0.41 0.56 0.62 0.51 0.70 0.81 0.89 0.88 0.91 0.95 0.97 0.99 0.94 0.94 0.96 1.05 1.17 1.17 1.10 1.12 1.09 1.09 1.08 1.10 1.13 1.03 0.95 0.93 0.92 0.86 0.77 0.71 0.62 0.59 0.59 0.61
0.15 0.29 0.40 0.39 0.33 0.41 0.39 0.30 0.25 0.23 0.23 0.39 0.49 0.64 0.82 0.75 0.59 0.81 0.93 0.98 0.91 0.89 0.96 0.89 0.94 0.94 0.88 0.84 0.90 1.01 1.10 1.11 1.09 1.03 1.03 1.03 1.01 1.00 0.92 0.84 0.80 0.80 0.72 0.65 0.65 0.60 0.61 0.64 0.65
0.15 0.28 0.28 0.25 0.26 0.32 0.30 0.22 0.21 0.27 0.31 0.41 0.59 0.83 1.10 1.05 0.81 0.87 0.97 0.92 0.94 0.96 0.97 0.95 1.03 1.00 0.94 0.86 0.86 0.84 0.93 1.03 1.01 0.96 0.95 0.91 0.83 0.85 0.87 0.87 0.76 0.71 0.63 0.59 0.59 0.58 0.61 0.66 0.71
0.13 0.19 0.17 0.15 0.19 0.26 0.25 0.19 0.19 0.21 0.29 0.45 0.57 0.88 1.27 1.48 1.13 0.97 1.05 1.14 1.22 1.13 1.00 0.97 1.05 1.05 0.97 1.01 0.93 0.84 0.82 0.86 0.85 0.83 0.84 0.81 0.76 0.76 0.80 0.89 0.84 0.69 0.65 0.64 0.65 0.65 0.65 0.68 0.77
0.06 0.09 0.14 0.13 0.11 0.20 0.21 0.19 0.18 0.21 0.25 0.37 0.52 0.77 1.26 1.30 1.04 1.07 1.37 1.48 1.65 1.53 1.30 1.16 1.10 1.01 0.95 0.94 0.93 0.89 0.85 0.79 0.78 0.77 0.74 0.80 0.80 0.77 0.84 0.89 0.90 0.82 0.80 0.87 0.84 0.81 0.79 0.75 0.75
0.05 0.06 0.10 0.10 0.08 0.11 0.13 0.15 0.17 0.17 0.19 0.38 0.55 0.71 1.00 0.99 0.95 1.03 1.63 1.81 1.86 1.76 1.62 1.37 1.14 1.05 1.02 0.89 0.85 0.97 0.96 0.92 0.91 0.89 0.86 0.99 1.14 0.98 1.04 0.98 1.12 1.13 1.08 1.17 1.20 1.21 1.15 1.03 0.90
0.04 0.04 0.05 0.04 0.04 0.06 0.10 0.15 0.15 0.17 0.32 0.69 0.96 0.97 0.97 0.97 1.11 1.31 1.74 1.76 1.91 1.97 1.72 1.56 1.34 1.11 0.97 0.86 1.01 1.28 1.08 1.09 1.17 1.23 1.22 1.46 1.69 1.66 1.09 1.17 1.47 1.60 1.66 1.71 1.76 1.81 1.57 1.32 1.24
0.02 0.03 0.02 0.03 0.02 0.04 0.07 0.13 0.15 0.19 0.55 0.99 1.33 1.17 1.06 1.18 1.31 1.59 2.00 2.22 2.18 2.27 2.01 1.83 1.55 1.27 1.09 1.16 1.06 1.22 1.40 1.51 1.50 1.47 1.50 1.70 1.56 1.33 1.20 1.36 1.67 1.93 2.01 2.00 2.22 2.24 1.90 1.95 2.21
0.02 0.02 0.02 0.02 0.02 0.03 0.06 0.10 0.15 0.25 0.50 0.70 0.89 1.07 1.20 1.40 1.68 1.94 2.09 2.33 2.34 2.39 2.27 2.24 1.83 1.66 1.70 1.48 1.22 1.14 1.17 1.31 1.50 1.74 1.68 1.79 2.01 1.91 1.83 1.95 2.01 2.14 2.37 2.74 2.62 2.77 2.61 2.57 2.48
0.01 0.02 0.02 0.01 0.02 0.04 0.06 0.08 0.18 0.33 0.44 0.54 0.87 1.21 1.49 1.56 1.88 2.20 2.31 2.59 2.45 2.41 2.43 2.43 2.21 2.04 2.11 1.90 1.66 1.40 1.51 1.53 1.61 1.74 1.87 1.83 2.13 2.34 2.32 2.30 2.28 2.15 2.23 2.47 2.66 2.68 3.03 3.16 2.77
0.01 0.01 0.01 0.02 0.03 0.05 0.09 0.14 0.24 0.38 0.54 0.73 0.96 1.23 1.54 1.81 2.04 2.17 2.57 2.76 2.78 2.68 2.74 2.54 2.45 2.44 2.43 2.36 2.28 2.15 1.89 1.97 1.89 1.83 1.84 1.91 2.18 2.50 2.63 2.50 2.48 2.32 2.28 2.45 2.64 2.83 3.31 3.26 3.07
0.02 0.02 0.04 0.05 0.06 0.08 0.12 0.30 0.45 0.56 0.63 0.79 1.00 1.14 1.48 1.99 2.27 2.30 2.60 2.73 2.67 3.03 3.07 3.07 3.02 3.15 3.09 2.92 2.81 2.58 2.37 2.22 2.19 2.26 2.26 2.16 2.24 2.54 2.57 2.40 2.32 2.39 2.51 2.70 2.72 2.93 3.15 2.86 2.87
0.03 0.09 0.12 0.12 0.10 0.11 0.19 0.51 0.61 0.68 0.68 0.87 1.07 1.24 1.54 1.84 2.20 2.35 2.63 2.81 2.87 3.23 3.40 3.59 3.57 3.59 3.43 3.43 3.37 3.13 2.89 2.72 2.54 2.48 2.51 2.36 2.34 2.43 2.65 2.44 2.30 2.62 2.66 2.79 3.08 3.23 3.20 3.13 3.13
0.06 0.07 0.09 0.12 0.10 0.09 0.16 0.43 0.55 0.70 0.92 1.08 1.26 1.43 1.47 1.75 2.08 2.44 2.73 3.07 3.33 3.65 3.92 4.12 4.13 3.99 3.74 3.78 3.74 3.60 3.46 3.14 2.79 2.61 2.52 2.37 2.34 2.47 2.77 2.73 2.83 2.89 2.99 3.03 2.89 3.32 3.36 3.26 3.27
0.06 0.07 0.08 0.12 0.11 0.11 0.22 0.47 0.59 0.76 1.00 1.05 1.31 1.49 1.57 1.66 2.11 2.56 2.77 3.19 3.66 4.14 4.55 4.40 4.31 4.52 4.41 4.25 4.11 3.84 3.39 2.96 2.81 2.78 2.59 2.43 2.47 2.57 2.99 2.85 2.84 2.93 3.09 3.15 3.13 3.29 3.32 3.07 3.05
0.05 0.07 0.10 0.13 0.12 0.15 0.28 0.55 0.80 0.90 1.17 1.13 1.16 1.32 1.48 1.61 1.91 2.34 2.65 3.21 3.81 4.20 4.58 4.74 4.76 4.68 4.51 4.14 3.82 3.58 3.34 3.13 2.87 2.69 2.61 2.50 2.39 2.56 2.98 2.85 3.09 3.05 3.05 3.07 3.13 3.26 3.18 2.86 3.05
0.06 0.08 0.10 0.15 0.16 0.21 0.39 0.62 0.91 0.92 0.99 1.04 0.96 1.00 1.20 1.56 1.81 2.34 2.65 2.87 3.33 3.84 4.30 4.60 4.75 4.65 4.27 3.90 3.70 3.58 3.51 3.11 2.81 2.77 2.87 2.72 2.72 2.75 2.79 2.97 2.95 3.02 3.12 3.06 3.05 3.18 3.02 2.66 2.89
0.08 0.09 0.10 0.11 0.14 0.28 0.44 0.85 1.10 0.99 0.93 0.95 0.94 0.99 1.17 1.64 2.08 2.34 2.54 2.70 2.99 3.38 3.69 3.81 3.97 3.94 3.79 3.82 3.83 3.76 3.73 3.29 3.18 3.17 3.15 2.95 2.95 2.96 2.97 2.95 2.88 2.88 2.69 2.74 2.81 2.85 2.87 2.80 2.73
0.10 0.08 0.07 0.08 0.16 0.37 0.46 1.01 1.39 1.19 1.04 1.08 1.13 1.08 1.35 1.68 1.72 1.87 2.19 2.51 2.69 2.92 3.27 3.50 3.56 3.52 3.43 3.54 3.59 3.47 3.27 3.11 3.23 3.52 3.47 3.19 2.97 2.81 2.62 2.56 2.71 2.73 2.53 2.54 2.23 2.36 2.57 2.59 2.45
0.09 0.08 0.08 0.11 0.17 0.35 0.46 0.78 1.30 1.28 1.26 1.15 1.17 1.28 1.49 1.52 1.46 1.57 1.78 2.10 2.22 2.53 2.82 3.07 3.33 3.43 3.38 3.43 3.38 3.40 3.26 3.26 3.30 3.28 3.29 3.09 2.88 2.54 2.22 2.24 2.41 2.40 2.33 2.22 2.10 2.27 2.17 2.13 2.18
0.07 0.08 0.14 0.21 0.33 0.68 0.56 0.60 1.06 1.21 1.04 0.98 1.08 1.11 1.30 1.31 1.31 1.50 1.66 1.89 2.02 2.17 2.29 2.43 2.65 2.93 3.10 3.16 3.14 3.17 3.13 3.11 3.04 2.94 2.82 2.63 2.47 2.21 1.95 1.87 2.03 2.15 2.17 2.11 2.08 2.17 2.07 2.09 2.23
0.07 0.12 0.45 0.80 1.02 1.07 0.59 0.63 1.08 0.95 0.75 0.76 0.95 1.00 1.06 1.04 1.02 1.24 1.37 1.49 1.63 1.75 1.86 1.99 2.18 2.52 2.69 2.69 2.68 2.80 2.86 2.87 2.79 2.75 2.60 2.39 2.16 1.88 1.83 1.85 1.95 2.01 2.06 1.92 2.00 2.06 2.10 2.22 2.28
0.09 0.12 0.39 0.69 0.81 0.87 0.71 1.05 1.48 0.99 0.77 0.81 0.86 0.86 0.85 0.82 0.79 0.95 1.17 1.38 1.44 1.47 1.59 1.74 1.97 2.20 2.31 2.26 2.39 2.61 2.68 2.78 2.66 2.69 2.45 2.20 2.00 1.89 1.95 1.93 1.81 1.76 1.87 1.77 2.03 1.97 2.01 2.19 2.23
0.10 0.10 0.16 0.32 0.41 0.66 0.91 1.18 1.22 0.76 0.67 0.75 0.77 0.79 0.90 0.85 0.78 0.85 0.94 1.11 1.16 1.21 1.33 1.48 1.84 2.12 2.24 2.27 2.41 2.51 2.58 2.56 2.47 2.39 2.22 2.02 2.02 1.96 2.07 2.02 1.92 1.82 1.89 2.01 2.28 2.22 2.19 2.39 2.34
0.11 0.12 0.18 0.25 0.43 0.67 0.89 1.19 1.31 0.93 0.75 0.55 0.50 0.55 0.56 0.56 0.57 0.66 0.71 0.81 0.93 1.13 1.39 1.54 1.68 1.98 2.10 2.12 2.21 2.24 2.41 2.36 2.25 2.18 2.01 1.86 1.77 1.81 1.97 2.11 2.04 1.97 2.00 2.16 2.34 2.35 2.50 2.64 2.59
0.13 0.13 0.15 0.19 0.26 0.46 0.90 1.14 0.90 0.74 0.61 0.56 0.53 0.58 0.50 0.45 0.47 0.54 0.69 0.81 0.98 1.14 1.31 1.38 1.43 1.59 1.73 1.83 2.02 2.01 2.00 2.11 2.17 2.04 1.82 1.74 1.73 1.76 1.83 2.02 2.10 2.07 2.10 2.19 2.24 2.23 2.52 2.64 2.62
0.15 0.13 0.14 0.18 0.19 0.29 0.52 0.75 0.58 0.64 0.63 0.54 0.56 0.63 0.63 0.59 0.54 0.60 0.79 0.95 1.05 1.19 1.22 1.22 1.26 1.40 1.55 1.73 1.92 2.00 2.01 2.05 2.06 1.94 1.76 1.70 1.73 1.80 1.87 1.99 2.01 1.93 1.93 2.11 2.15 2.22 2.48 2.61 2.51